GFSNGP_850_thetae_021.txt.gz
Theta_e
312 312 312 311 313 313 313 313 317 313 311 312 313 315 313 311 310 310 310 309 309 308 305 304 303 305 301 299 298 296 296 296 295 294 294 294 293 292 291 291 291 291 291 290
313 311 311 313 311 311 313 312 311 311 313 311 310 311 311 311 310 309 309 309 309 307 304 303 305 302 300 298 296 296 296 295 294 294 293 293 292 291 291 290 290 291 291 291
312 308 308 311 311 312 311 311 314 314 314 311 312 311 312 311 311 310 310 310 309 306 304 304 304 300 298 297 296 296 295 293 293 291 292 292 291 290 290 290 290 291 291 290
311 306 312 311 310 309 311 310 309 309 310 311 311 311 311 311 312 311 311 310 308 304 303 305 300 298 297 296 296 295 293 291 290 291 291 291 290 290 290 290 289 290 289 289
313 310 308 309 307 310 312 313 310 310 310 309 309 310 311 312 312 312 311 310 308 304 301 300 298 297 296 296 295 292 290 290 290 290 290 289 291 291 290 289 289 289 289 288
305 310 311 309 306 310 310 316 310 310 310 309 310 315 314 312 312 311 310 309 306 302 300 298 297 296 296 294 291 290 290 290 290 289 289 289 291 291 290 289 289 289 288 288
302 312 309 306 308 310 314 314 308 310 311 309 312 313 311 312 312 311 309 305 302 300 298 297 296 296 294 291 290 290 290 289 289 289 289 289 290 290 290 288 288 288 288 287
303 308 313 305 311 314 313 310 309 311 312 312 312 311 311 311 311 308 306 304 300 298 297 296 296 293 291 290 290 289 289 289 289 289 289 289 290 289 290 288 287 287 287 286
310 313 307 307 311 312 311 311 310 311 311 311 311 311 310 310 308 306 304 299 300 299 296 295 293 290 290 289 289 289 289 289 289 289 288 289 289 289 289 287 287 286 286 285
309 309 306 308 309 309 310 310 310 311 311 311 312 310 309 308 305 300 300 300 298 296 294 292 290 290 289 289 289 289 289 289 289 288 287 288 289 289 288 286 286 286 285 285
308 308 309 310 310 310 310 311 311 312 311 310 311 310 308 306 299 301 302 297 295 294 291 290 290 289 289 289 289 289 289 289 288 287 287 287 288 288 287 286 285 285 284 283
313 311 309 310 310 311 312 312 312 313 312 311 310 310 307 300 302 302 296 295 293 292 290 290 289 289 289 289 289 289 289 288 287 288 287 287 287 287 287 285 285 284 283 283
309 309 310 311 312 312 312 312 312 311 310 309 307 306 301 301 299 294 293 295 293 290 290 289 290 290 290 289 289 289 288 288 287 288 288 288 287 287 286 286 285 284 283 282
312 311 312 311 311 311 311 311 310 308 305 304 300 300 298 295 295 295 295 291 290 290 290 290 290 290 289 289 289 288 288 287 288 287 287 288 287 287 286 286 286 284 283 282
310 309 310 309 309 308 305 303 300 298 299 299 297 296 294 294 294 294 291 290 290 290 290 290 289 289 289 289 289 288 287 287 287 288 287 287 287 287 286 285 285 284 283 283
305 306 305 303 299 298 299 299 299 298 296 294 294 295 294 294 292 290 290 290 290 290 290 290 290 290 289 289 289 288 287 286 286 286 286 287 287 287 286 285 284 283 283 283
304 299 299 298 298 298 297 296 295 295 295 294 294 294 293 291 290 290 290 290 290 290 290 290 290 290 290 289 288 287 286 285 286 286 285 286 286 287 285 284 284 283 283 283
299 298 298 297 296 296 295 294 294 294 294 293 293 291 290 290 291 290 290 290 290 290 290 291 291 291 291 289 288 286 286 285 285 285 286 286 286 287 286 285 284 284 283 283
298 297 296 295 294 294 294 294 293 293 291 290 290 290 291 290 290 290 290 290 290 290 291 291 292 291 291 289 288 288 287 286 285 285 285 286 286 287 286 286 285 284 284 284
293 293 293 292 292 292 291 290 290 290 290 290 290 290 290 291 291 291 291 291 291 291 291 292 292 291 290 288 287 287 287 286 285 285 285 286 286 286 286 286 285 285 285 285
293 293 292 292 291 291 291 291 291 291 290 291 291 291 291 291 291 291 290 290 290 290 290 290 291 290 288 287 286 285 286 285 285 285 285 286 286 286 286 286 286 286 286 286
294 293 292 291 291 291 291 291 291 291 291 291 291 291 290 290 290 290 290 290 290 290 289 289 289 288 287 286 285 285 285 285 285 285 285 285 285 285 285 285 285 285 285 286
292 292 292 292 292 292 292 292 291 291 291 291 291 291 291 291 291 291 291 290 290 290 289 289 288 288 287 286 286 285 284 284 284 284 284 284 283 283 283 283 283 283 284 284
292 292 292 292 292 291 290 290 289 289 288 287 286 286 286 287 287 287 287 288 288 289 288 288 287 287 286 286 286 285 284 283 283 283 283 282 282 282 282 282 282 282 283 283
292 291 291 290 289 287 286 285 285 285 284 284 284 284 283 284 284 285 285 285 286 287 287 287 286 286 286 286 285 284 284 283 282 282 281 281 281 281 281 281 281 282 282 282
290 289 287 286 285 284 283 283 282 282 282 282 282 282 282 282 282 283 283 284 284 285 286 286 286 286 285 284 284 284 283 282 281 280 280 280 279 279 280 280 281 282 283 283
287 286 285 284 283 282 282 281 280 280 279 279 279 279 279 279 280 280 281 281 282 284 284 285 284 284 283 283 282 281 281 280 280 279 278 278 278 278 279 279 280 281 283 284

GFSNGP_850_thetae_024.txt.gz
Theta_e
317 316 316 317 318 318 317 318 318 316 316 315 316 316 317 318 318 318 316 315 315 313 311 309 306 304 305 303 301 299 298 297 297 297 295 295 295 296 295 294 293 293 293 293
319 316 316 316 317 317 318 318 317 317 317 317 316 315 316 317 317 316 315 314 313 312 310 307 305 304 306 302 299 298 297 297 296 294 294 294 295 294 293 293 293 293 292 292
318 313 314 318 317 317 316 317 317 318 318 317 316 315 315 316 316 315 315 314 312 311 309 307 305 306 305 300 299 297 296 296 294 293 293 294 294 293 293 293 292 292 292 291
320 312 325 315 313 314 316 316 316 316 316 314 315 315 315 315 315 315 314 313 312 310 308 305 304 304 300 299 297 296 296 294 293 293 293 293 293 293 293 292 292 292 292 290
324 316 314 312 312 312 314 314 315 315 315 314 314 314 316 314 314 315 314 312 312 310 306 303 303 302 298 297 296 296 294 293 292 292 292 292 292 292 292 292 291 291 291 290
315 328 329 315 312 312 314 316 312 314 315 314 314 318 314 312 311 313 312 312 310 306 304 302 301 298 298 296 296 294 291 290 290 292 291 291 291 292 292 291 290 290 290 289
318 324 317 313 310 313 315 314 314 313 315 314 316 314 314 311 312 312 311 309 306 307 302 299 298 299 296 296 293 291 290 290 290 291 291 291 291 291 291 291 290 289 288 288
315 323 323 310 313 317 316 314 313 313 314 315 315 314 312 312 312 311 309 304 303 302 299 297 302 296 294 292 291 290 289 289 290 290 290 290 291 291 291 290 290 289 287 287
317 318 312 311 314 314 313 312 313 313 313 314 313 313 312 310 309 305 302 298 298 296 299 298 295 294 291 290 290 289 289 289 291 291 290 290 290 290 290 290 289 289 288 287
314 314 313 312 311 311 311 311 312 312 312 312 313 313 312 308 304 301 299 298 298 299 298 296 296 291 290 290 289 289 289 290 291 291 290 289 289 289 289 289 289 288 288 287
314 313 313 313 312 311 312 312 313 313 313 313 313 313 311 305 301 298 295 298 300 296 295 292 291 290 290 289 290 289 290 290 290 290 290 290 289 288 289 288 288 288 287 286
317 313 312 313 312 312 312 313 313 312 313 310 311 311 305 300 296 298 301 297 296 292 293 290 290 290 290 290 290 289 289 289 290 289 290 289 289 289 288 287 287 286 285 285
312 312 312 313 312 311 311 307 307 307 305 303 302 301 298 298 299 295 294 294 295 292 290 290 290 290 290 290 289 289 289 288 289 289 289 289 288 287 287 288 287 286 286 285
308 311 314 309 308 304 304 303 302 301 299 298 297 297 298 296 295 295 294 293 292 290 290 290 290 290 290 289 289 289 289 289 288 288 288 288 288 287 287 287 287 286 286 285
304 305 306 303 302 302 302 300 299 298 298 297 297 296 296 295 294 293 293 292 290 290 290 290 290 290 290 290 290 289 289 288 288 288 287 287 287 287 287 287 287 286 286 285
302 303 303 302 299 299 299 298 297 297 297 296 295 294 294 293 293 291 290 290 290 290 290 290 290 290 290 290 290 290 289 288 287 286 287 287 287 286 286 287 287 286 286 285
303 299 299 298 297 297 297 297 297 294 294 294 294 294 293 292 291 290 290 290 290 290 290 290 290 290 291 291 291 290 290 289 287 286 287 286 286 286 286 286 287 286 285 285
301 299 298 298 298 297 295 295 295 294 294 293 291 291 290 290 291 291 290 290 290 290 290 290 290 291 291 291 291 290 289 288 288 288 287 286 285 286 286 286 286 286 285 284
297 296 296 296 296 295 294 292 291 290 290 290 290 291 291 290 290 291 291 291 291 291 291 291 291 291 291 292 291 290 288 288 287 287 287 286 285 285 286 286 286 286 286 286
294 292 291 291 290 290 291 291 291 291 291 291 291 291 291 291 291 291 291 291 290 290 290 290 290 290 290 290 290 288 287 286 286 286 286 286 286 286 285 286 286 286 286 286
294 293 292 291 291 291 291 291 291 291 291 291 291 291 291 291 290 290 290 291 291 291 291 290 290 290 289 289 288 287 287 286 285 285 286 286 285 285 285 286 285 286 286 285
294 292 291 291 291 291 291 291 291 291 291 291 291 290 290 290 289 289 289 289 289 289 290 290 290 289 289 289 288 287 287 285 285 285 285 285 285 285 285 285 284 284 284 284
292 292 292 292 292 292 292 290 289 287 287 286 285 285 284 284 284 285 285 286 285 285 285 286 287 288 288 288 287 287 286 285 285 284 284 284 284 283 283 282 282 282 283 283
292 292 292 291 290 288 288 287 286 285 284 284 283 283 282 282 282 283 283 283 283 283 283 284 285 286 286 286 286 285 285 285 284 283 283 282 282 281 281 280 280 280 280 281
291 291 289 288 287 286 285 285 283 283 282 281 280 279 279 279 279 279 279 280 280 281 281 283 284 284 285 284 284 285 284 283 283 282 281 281 280 280 279 279 279 279 280 281
289 287 287 286 285 284 283 282 280 279 279 278 278 277 277 277 277 277 277 278 278 279 280 281 281 282 282 282 281 281 281 281 280 280 280 279 279 278 278 278 278 279 279 280
287 286 285 283 282 281 280 279 278 278 277 276 276 276 275 275 275 276 276 276 276 277 277 277 278 278 278 278 278 278 278 278 278 278 278 277 277 276 276 276 277 278 279 280

GFSNGP_850_thetae_030.txt.gz
Theta_e
320 321 322 322 321 320 320 321 322 322 319 319 318 319 318 317 318 318 318 322 322 322 322 321 320 318 317 314 311 307 306 304 302 301 300 300 300 298 297 297 297 297 295 295
324 322 322 321 321 320 319 319 319 319 319 319 318 318 317 316 316 317 317 317 320 321 322 321 320 318 316 313 309 306 306 303 301 302 300 299 298 297 296 296 296 295 295 295
324 319 318 319 320 319 318 319 319 320 320 319 318 317 317 317 317 316 317 317 317 319 319 320 320 318 315 312 307 306 305 302 301 300 299 298 296 295 295 295 294 294 295 294
328 317 322 317 317 316 317 317 317 317 317 316 317 316 315 315 316 316 316 316 316 316 317 318 319 317 314 310 306 305 304 301 300 298 297 296 295 294 294 294 294 294 294 293
327 322 318 317 316 316 316 316 316 315 315 315 315 315 316 316 316 314 314 313 313 315 316 316 317 315 311 307 305 304 301 299 299 297 295 295 293 293 293 293 293 294 294 293
322 327 325 320 315 315 315 318 315 315 315 315 315 319 318 317 315 314 314 314 314 314 315 315 314 311 307 305 302 300 299 297 296 295 293 292 293 293 293 293 293 293 293 292
323 325 323 318 315 315 319 322 316 315 315 315 317 316 316 316 316 315 315 315 315 315 314 312 309 306 302 300 299 298 296 296 294 294 292 292 292 292 292 292 293 293 292 292
327 322 322 315 315 317 320 316 315 315 315 315 315 315 315 315 315 315 314 313 311 309 306 304 302 300 299 299 296 295 292 294 293 291 292 293 293 292 292 291 292 292 292 291
323 324 318 314 314 314 314 314 315 315 315 315 315 315 315 315 315 314 312 308 305 302 300 299 298 298 297 296 294 293 293 292 292 291 292 292 293 293 292 291 291 290 290 291
320 317 316 315 314 314 315 315 315 316 316 316 316 316 316 315 312 309 305 301 299 298 298 298 298 298 296 294 294 293 292 292 291 292 292 292 290 291 292 291 291 290 289 289
318 317 316 316 317 317 316 316 315 315 314 311 312 314 312 307 304 300 300 299 298 298 297 296 296 296 295 293 293 291 290 290 290 290 290 290 291 291 291 291 290 289 289 289
323 317 318 317 313 313 312 310 309 309 307 305 305 304 303 301 299 300 299 298 298 298 298 296 296 293 293 292 291 290 289 289 289 289 289 290 291 291 290 289 289 289 289 289
317 315 315 313 311 309 306 305 304 304 303 302 302 302 302 302 300 299 298 298 298 297 294 293 293 292 290 290 290 290 289 290 290 290 290 290 290 289 289 289 289 288 289 289
311 313 312 312 309 306 303 301 302 301 300 300 299 298 298 297 297 297 296 295 294 294 293 292 292 291 291 291 291 290 290 290 291 291 291 291 289 288 288 288 288 288 288 288
309 310 309 306 304 302 301 300 299 298 298 297 297 296 296 296 296 296 296 295 293 291 293 293 293 291 291 292 292 292 292 292 292 292 291 290 290 289 288 288 287 287 288 287
306 306 304 303 301 301 300 299 299 298 297 297 296 296 295 295 295 294 294 293 291 290 290 290 290 290 290 290 290 291 292 292 292 292 291 291 290 289 289 289 288 287 287 287
303 302 301 301 300 300 299 299 298 297 296 293 290 290 290 290 292 292 291 290 291 290 290 290 292 292 292 292 291 292 292 292 291 291 291 290 289 289 288 288 288 288 287 286
303 301 300 300 299 298 297 296 293 292 290 290 290 290 290 290 291 291 290 290 290 290 291 293 292 292 292 291 291 291 290 290 290 290 290 290 289 288 287 287 287 288 287 286
300 299 299 298 297 296 295 292 292 292 291 291 291 290 290 290 289 288 287 286 287 289 290 289 289 288 287 287 287 287 289 289 290 290 289 289 289 288 287 286 286 287 287 286
298 297 295 294 293 292 291 292 293 291 291 290 289 288 287 286 286 285 285 286 287 287 287 286 285 283 283 284 284 284 284 285 286 287 287 289 288 287 286 286 286 286 287 286
295 294 291 291 291 291 291 291 291 290 288 287 287 286 285 284 284 283 284 284 285 284 283 281 280 281 282 281 281 281 282 283 284 285 286 288 287 287 286 286 286 286 286 285
294 291 291 292 292 291 291 290 288 287 287 286 285 284 283 282 281 281 282 282 282 280 279 279 280 280 280 279 280 281 282 284 285 285 285 286 287 286 285 284 283 283 283 282
292 292 292 292 291 290 288 287 287 287 286 284 283 282 281 280 280 280 280 280 278 278 277 278 278 278 278 278 278 278 279 280 282 282 283 283 283 283 282 281 281 280 280 280
293 292 291 291 289 287 287 287 285 284 283 282 282 281 280 279 279 279 278 277 277 276 276 276 276 276 276 276 276 276 276 276 277 278 278 279 279 279 279 278 278 278 279 279
291 290 289 288 288 286 285 284 283 283 282 281 281 280 279 279 278 277 276 276 275 274 274 274 274 275 275 275 274 274 274 274 274 274 275 275 275 275 275 276 276 276 276 276
290 289 288 287 286 284 284 282 281 281 280 280 279 278 278 277 277 276 275 274 274 273 272 272 271 271 272 273 272 272 272 272 272 273 273 273 273 273 273 273 274 274 273 274
287 286 285 285 283 282 281 280 280 279 278 278 277 276 277 277 275 275 274 273 273 272 271 271 270 270 269 269 269 270 270 271 270 270 271 271 271 271 272 272 272 271 271 272

GFSNGP_850_thetae_033.txt.gz
Theta_e
318 320 321 321 321 319 318 318 317 317 318 317 316 314 315 317 318 318 319 322 324 323 322 320 320 320 319 318 318 317 313 310 308 304 303 302 300 301 301 297 297 296 297 296
321 321 318 319 319 318 318 318 317 317 317 315 316 316 316 316 316 316 317 317 317 320 322 322 321 320 319 318 317 316 314 308 307 303 302 301 300 301 297 295 294 295 295 295
319 314 314 312 315 316 318 317 316 316 315 313 313 314 315 315 316 316 316 316 316 316 317 321 321 320 319 318 315 312 309 307 303 302 301 299 299 297 296 294 294 294 294 294
314 311 310 314 315 314 314 314 312 312 311 313 313 315 315 315 315 314 314 313 313 314 315 315 318 320 319 317 313 309 306 303 302 300 299 297 297 294 294 293 293 293 293 293
312 313 315 315 315 316 314 314 313 312 312 313 314 315 316 315 314 314 314 314 314 314 315 316 317 317 317 312 307 305 303 301 299 298 296 295 294 293 293 293 293 293 293 293
313 313 310 315 314 315 314 314 314 314 313 314 314 310 313 316 315 315 314 314 314 314 315 315 313 312 309 305 305 301 300 298 296 296 294 294 295 293 293 293 292 292 293 293
307 309 313 318 314 314 311 312 315 314 315 314 313 314 315 315 315 314 314 314 314 314 313 309 308 308 306 302 300 298 298 297 297 297 297 293 293 292 292 292 292 292 291 292
312 315 316 315 314 312 315 314 314 314 315 315 315 315 316 315 315 313 313 311 310 311 308 304 303 304 301 299 297 298 297 299 298 294 293 293 292 292 293 293 292 292 291 291
315 314 315 314 313 314 314 315 315 316 316 316 316 316 315 314 312 308 308 308 307 307 304 301 301 300 299 300 300 300 300 295 293 293 292 291 291 292 292 292 291 291 291 291
314 316 315 314 316 316 315 316 315 315 315 315 314 314 312 310 306 305 303 302 301 301 301 300 300 301 300 298 297 295 294 292 292 290 290 291 291 291 290 290 291 291 290 290
315 315 316 315 315 315 314 314 312 313 311 309 311 307 307 304 302 301 301 300 300 300 299 298 297 297 295 294 293 292 291 290 290 289 289 289 289 290 290 290 291 290 289 289
311 316 314 311 311 312 312 309 308 309 307 305 305 303 303 302 300 299 299 298 298 297 297 297 294 293 293 292 290 290 290 290 289 289 290 290 290 290 290 290 288 288 288 289
315 315 312 310 310 309 309 307 306 306 304 303 302 301 300 299 297 297 298 297 296 294 294 293 293 292 291 290 290 290 290 290 290 290 290 291 291 291 290 290 289 288 287 288
313 312 309 308 304 305 306 303 303 301 300 299 298 298 297 297 296 296 295 294 293 292 292 293 293 293 292 292 292 291 291 291 291 291 291 292 291 291 290 290 289 289 288 287
311 312 306 304 303 301 300 299 298 297 296 296 296 296 296 296 295 295 294 294 293 291 290 290 290 290 290 290 290 290 291 291 291 292 292 292 292 291 291 290 290 289 288 288
306 306 304 303 301 299 299 298 297 297 297 297 296 295 294 294 293 293 293 291 290 290 290 290 291 292 292 292 292 292 292 291 291 291 291 291 291 291 291 290 289 288 288 287
304 301 301 300 300 299 298 298 297 297 295 291 290 290 290 290 290 290 290 290 289 289 290 290 290 289 290 289 289 289 288 288 288 288 288 289 289 290 290 290 289 288 287 287
305 302 301 300 299 298 297 296 294 291 290 290 290 290 290 289 288 287 286 286 286 288 288 288 287 286 285 283 282 282 283 284 283 282 283 284 286 288 289 289 289 288 287 286
301 300 299 298 298 297 293 291 291 290 290 290 289 288 287 287 286 285 285 284 285 285 285 284 283 280 280 280 281 281 280 280 281 282 283 282 283 284 285 286 288 287 286 286
298 298 298 296 295 292 292 292 291 290 289 288 287 287 286 285 284 283 282 283 284 283 282 280 279 279 279 279 278 278 279 280 280 281 283 283 284 285 285 287 287 286 286 286
297 296 294 292 291 291 292 291 290 288 287 287 287 286 284 282 282 281 281 281 281 280 278 278 278 278 277 277 277 278 278 278 278 279 279 281 282 284 285 286 286 285 285 284
293 291 291 291 291 290 290 288 287 287 287 287 286 284 282 281 280 280 280 279 278 278 277 277 277 276 276 276 277 277 276 276 276 276 277 278 278 280 280 280 280 281 281 281
292 292 292 291 290 289 288 287 287 286 285 284 283 282 281 280 279 279 279 278 277 277 276 276 276 276 276 275 276 275 275 275 275 274 274 275 275 275 276 277 277 278 278 278
292 292 292 291 289 288 287 285 285 284 283 282 281 281 280 279 278 278 277 276 276 275 275 274 274 274 274 274 274 274 274 273 273 273 273 273 273 273 273 273 274 274 275 276
292 291 289 288 287 286 286 284 283 283 282 281 280 279 278 278 278 277 276 275 275 274 273 273 272 272 271 271 272 272 272 271 271 272 272 271 271 272 272 272 272 272 273 274
290 288 288 287 287 285 284 282 281 281 280 279 279 278 277 277 277 276 275 274 273 273 272 271 271 270 270 270 269 270 270 270 270 271 270 270 270 270 270 271 271 271 271 272
287 286 286 285 285 284 281 281 280 279 278 278 278 276 276 276 275 275 274 273 272 271 271 270 270 270 269 269 268 269 269 269 269 270 269 269 269 269 269 269 269 269 270 270

GFSNGP_850_thetae_036.txt.gz
Theta_e
316 317 320 320 320 319 317 316 316 315 316 315 315 313 314 315 316 320 325 325 323 322 322 322 322 322 322 320 319 318 317 314 311 309 306 304 302 301 299 299 298 296 295 295
319 317 316 318 316 315 317 317 316 316 316 311 312 314 315 315 316 315 315 315 316 318 322 321 320 320 320 319 319 318 316 312 308 305 302 303 301 299 298 298 299 295 295 294
318 312 313 312 314 315 316 316 316 314 313 311 310 311 312 314 314 314 313 314 314 315 316 320 321 320 320 319 318 317 313 308 306 304 303 302 301 297 297 296 295 294 294 293
311 309 311 315 313 314 312 311 311 311 311 311 312 313 313 313 313 313 313 313 313 313 313 315 318 320 319 318 317 312 308 306 304 302 302 298 296 296 298 298 296 294 293 293
311 311 313 314 313 312 312 314 312 310 311 312 315 316 315 315 314 314 314 314 314 314 313 313 314 317 318 316 312 308 306 303 301 300 297 296 297 298 299 294 293 293 293 291
310 311 310 312 313 313 312 312 313 312 312 313 312 311 311 315 315 314 314 314 314 314 314 314 315 316 316 312 308 306 302 301 299 296 297 300 299 295 293 293 292 291 291 291
304 307 308 311 313 313 310 309 313 313 313 313 311 312 314 314 314 314 313 313 313 313 313 313 312 311 310 305 302 300 299 298 298 300 300 296 293 292 292 292 292 292 292 292
311 309 313 314 313 312 310 313 314 314 314 315 315 315 314 312 312 311 311 310 309 309 308 305 304 305 305 305 302 300 299 300 300 297 293 293 292 291 290 291 291 292 292 292
312 312 312 312 314 314 314 315 315 315 315 315 315 313 311 309 308 307 306 305 304 304 302 301 300 300 300 299 300 300 300 298 294 293 292 291 290 290 290 290 290 290 290 290
314 314 314 314 314 315 315 315 314 315 315 315 313 309 307 305 303 302 301 300 300 300 299 299 299 298 298 297 296 294 293 292 292 290 290 290 289 289 289 289 289 289 290 290
313 314 313 312 311 312 312 312 312 312 312 311 311 305 304 301 300 299 299 299 299 299 298 297 296 294 293 292 291 290 290 290 290 289 289 289 289 289 290 290 289 289 289 289
310 315 312 310 309 310 311 309 309 309 306 304 306 303 301 300 299 298 298 297 297 296 295 293 292 292 291 291 290 290 290 290 290 289 290 290 290 290 290 290 290 290 289 289
314 314 313 309 308 308 310 307 306 306 304 303 301 301 300 298 298 297 295 294 293 293 292 292 292 292 291 290 290 290 290 290 291 291 291 291 291 291 292 291 291 290 290 289
315 312 305 307 304 305 306 304 303 301 300 299 298 297 296 296 295 295 294 293 291 291 291 291 290 290 290 290 290 290 290 290 290 291 291 291 291 291 291 291 291 291 291 290
310 312 310 305 303 303 302 300 299 297 296 296 296 296 295 295 294 294 294 293 292 290 290 290 290 290 290 291 291 291 291 290 290 289 289 289 289 289 289 289 289 289 289 290
307 307 304 304 301 299 299 297 297 296 296 295 295 295 294 294 293 293 291 290 289 289 289 289 288 288 287 287 287 286 284 283 283 283 283 282 282 282 282 284 286 288 288 289
303 300 301 300 299 297 297 297 297 296 294 292 291 290 291 290 290 289 288 287 287 287 287 286 286 286 284 283 281 281 281 280 280 280 280 281 281 282 282 282 283 284 287 289
307 304 302 300 298 298 297 297 296 292 290 290 290 290 289 288 288 287 286 285 286 286 285 284 283 281 280 280 280 279 279 278 279 279 279 279 281 281 282 283 283 284 285 285
303 301 299 299 298 297 296 294 291 290 290 289 288 288 288 287 286 285 284 283 283 283 282 281 280 279 278 278 278 278 277 277 278 278 278 278 279 280 281 282 283 284 286 287
300 299 299 297 297 296 291 290 290 290 288 287 287 286 286 285 283 283 282 282 282 280 279 279 278 278 277 277 277 277 277 277 277 277 277 277 277 278 279 279 281 283 283 283
298 297 297 296 292 292 291 290 289 288 287 286 286 285 284 283 282 281 281 280 280 279 278 277 277 276 276 276 276 276 276 276 276 276 275 275 275 276 276 277 278 278 278 278
297 296 293 291 292 292 290 288 287 287 287 286 285 284 283 282 281 280 279 279 278 277 276 276 276 276 276 275 275 275 275 275 275 274 274 274 274 274 274 274 275 276 276 276
291 292 292 291 290 289 287 287 287 286 286 285 284 282 281 280 279 279 278 277 276 276 275 274 274 274 275 274 274 274 274 274 273 273 273 272 272 272 272 272 273 273 274 274
294 291 291 290 289 287 287 286 285 285 284 283 282 281 280 279 278 278 277 276 275 275 274 274 273 273 273 273 274 273 273 272 272 272 271 271 271 271 271 271 271 271 272 272
292 292 291 288 287 286 285 285 284 283 282 281 280 279 278 278 277 277 276 275 275 274 273 273 272 272 272 272 272 272 271 270 270 271 270 270 270 270 270 270 270 270 270 270
291 290 287 287 286 285 284 283 282 281 280 279 278 278 277 277 276 276 275 274 273 273 272 272 272 272 271 271 270 270 270 269 270 270 269 269 269 269 269 269 269 269 269 269
288 287 286 285 284 283 281 280 279 279 278 278 277 277 276 276 275 274 274 273 272 272 272 271 271 270 270 270 270 269 269 269 269 269 268 268 268 268 268 268 268 268 269 269

GFSNGP_850_thetae_039.txt.gz
Theta_e
315 315 318 317 318 316 315 314 315 315 314 315 314 312 312 313 316 319 320 324 326 326 327 328 328 328 326 325 323 322 321 319 318 316 312 308 306 303 301 302 300 299 296 296
317 315 315 318 316 315 315 315 314 314 314 311 311 312 312 313 314 315 316 318 319 320 322 322 323 324 325 323 322 322 320 318 316 310 307 306 303 302 302 299 298 296 299 299
315 312 312 312 313 314 314 315 315 314 312 310 310 310 311 312 313 313 314 314 314 315 315 318 319 319 319 320 321 320 318 316 312 308 306 302 302 302 300 298 298 300 299 294
311 309 312 314 312 312 313 311 310 310 310 311 310 311 312 313 313 313 313 313 313 313 313 313 314 315 318 318 318 317 314 310 307 306 304 302 301 299 299 300 299 296 295 293
312 312 313 314 311 311 311 312 311 309 309 312 313 314 314 314 314 314 314 314 314 313 313 314 314 315 317 317 314 312 309 306 304 302 301 299 298 300 299 298 295 293 293 292
307 311 313 313 311 312 310 311 311 310 310 311 312 309 310 313 314 314 314 313 313 313 314 314 313 314 314 314 310 307 304 303 300 297 298 299 300 299 296 293 293 292 291 291
304 307 310 309 312 311 311 310 312 312 312 311 309 309 313 313 313 313 313 312 312 312 312 311 311 310 311 308 305 302 299 299 301 300 298 299 297 294 293 292 292 291 290 290
305 305 313 311 311 310 309 311 313 313 313 313 314 313 312 311 310 310 309 308 307 308 307 305 305 305 304 303 301 301 301 299 299 300 298 295 293 292 291 290 290 290 289 289
312 311 311 312 311 313 314 314 313 314 314 314 313 310 309 308 306 305 305 304 303 304 302 300 300 300 301 300 299 299 299 297 295 294 293 292 291 290 290 290 289 289 289 289
312 314 313 312 313 313 313 314 314 314 314 313 312 307 306 304 303 303 302 301 301 300 300 299 299 299 298 296 294 293 292 291 290 290 289 289 289 289 289 289 289 289 289 289
312 312 311 311 312 314 314 314 315 314 313 312 311 306 305 302 301 300 299 299 299 299 298 296 293 293 292 291 291 290 290 290 290 290 289 289 289 289 290 290 290 290 290 290
311 313 312 311 310 311 312 311 312 312 309 307 308 305 302 300 299 298 298 297 296 294 293 292 292 291 291 291 290 290 290 290 290 290 290 290 290 290 290 290 291 291 291 291
313 314 313 310 308 309 310 308 307 307 306 304 302 301 300 298 297 296 295 294 293 292 292 291 291 290 290 290 290 290 290 290 290 290 290 290 290 290 290 289 289 290 289 290
314 313 306 307 306 306 307 305 304 303 302 301 300 299 298 296 294 293 292 291 291 291 290 290 290 290 290 290 290 290 290 290 289 287 286 285 285 284 283 283 283 283 284 285
310 312 311 307 305 304 304 303 302 300 298 297 297 296 295 295 294 293 293 292 291 290 289 289 289 289 288 287 286 285 284 282 282 281 281 280 280 280 280 280 281 282 282 282
307 308 306 306 302 301 300 299 299 296 296 296 296 295 294 294 293 292 291 290 289 289 288 288 287 286 285 283 282 281 281 281 280 280 279 279 279 279 279 279 280 280 281 282
302 299 300 298 299 298 298 297 297 296 295 295 294 294 293 292 290 289 288 287 287 287 286 285 284 283 281 281 280 280 280 279 279 278 278 278 278 278 278 279 279 279 280 281
308 305 303 303 300 298 297 297 296 295 294 292 291 291 290 289 288 287 286 286 285 284 283 283 282 281 280 280 279 279 278 278 278 277 277 277 277 277 277 277 278 278 277 280
306 305 302 300 299 298 297 295 294 291 290 290 289 288 288 287 287 285 284 283 283 282 282 281 280 279 279 278 278 277 277 277 277 276 276 276 276 276 276 276 276 277 278 278
301 300 300 299 298 297 296 293 290 290 289 288 288 288 287 286 284 283 282 282 282 281 280 279 279 278 278 277 277 276 276 276 276 276 275 275 275 275 275 275 275 275 276 276
300 299 298 297 296 294 292 290 290 289 288 287 287 287 285 284 283 282 281 281 280 279 279 278 278 277 277 276 276 275 275 275 275 274 274 274 274 274 274 274 274 273 274 274
297 297 296 294 291 290 290 290 288 287 287 286 285 284 283 283 282 281 280 279 279 278 277 277 276 276 275 275 275 274 274 274 273 273 273 273 273 273 273 272 272 272 272 272
296 295 292 292 293 291 289 287 286 286 286 285 284 283 282 281 280 279 279 278 277 276 276 275 274 274 274 274 274 273 273 272 272 272 272 272 272 271 271 271 271 271 271 271
292 292 293 291 291 288 286 285 285 285 284 283 282 282 281 280 279 278 277 277 276 275 274 274 273 273 273 273 273 272 272 272 271 271 271 271 271 270 270 270 270 270 270 270
293 292 290 289 287 286 286 285 284 284 283 282 281 280 279 278 278 277 276 275 275 274 273 273 272 272 272 272 272 272 271 271 271 271 270 270 270 269 269 269 269 269 269 269
291 289 288 287 286 285 285 283 283 282 281 280 279 278 278 277 276 276 275 274 273 273 272 272 272 271 271 271 271 271 270 270 270 269 269 269 269 269 269 269 269 269 268 268
290 288 286 285 283 283 282 282 280 280 279 278 277 277 276 275 275 274 273 273 272 272 271 271 271 270 270 270 270 270 270 269 268 269 269 269 268 268 268 268 268 268 268 268

GFSNGP_850_thetae_042.txt.gz
Theta_e
314 315 315 316 317 314 314 314 315 316 313 313 312 311 310 311 314 317 319 323 325 325 326 326 327 328 327 326 326 325 324 323 322 318 315 313 312 308 303 302 301 301 300 300
316 314 314 318 315 314 314 314 313 313 313 310 311 311 311 312 315 316 317 318 319 319 319 319 320 320 321 322 323 324 323 322 319 314 311 310 307 304 302 301 301 300 301 300
316 311 313 312 312 314 313 313 314 314 312 308 309 309 310 312 313 313 313 314 314 314 314 314 314 315 317 318 318 319 320 318 315 312 308 305 302 302 301 300 300 300 300 299
309 309 312 314 312 312 313 312 311 310 309 308 309 310 311 311 312 312 313 313 313 313 313 313 313 313 314 316 317 316 315 313 310 308 306 303 301 299 299 300 300 300 298 295
312 311 312 314 311 311 311 310 308 308 308 309 311 312 311 312 312 312 312 313 313 313 313 313 313 313 314 315 315 313 311 309 307 304 302 300 298 299 300 300 298 296 294 293
306 311 312 312 312 310 309 310 308 309 308 310 311 309 308 310 310 311 312 312 312 313 313 313 312 312 313 312 310 308 306 305 303 300 299 299 300 300 299 298 294 293 292 292
302 307 310 310 310 310 311 310 310 311 312 311 308 307 311 310 311 311 311 311 311 311 311 310 309 308 309 306 305 303 301 300 300 301 300 300 300 298 295 293 292 292 291 290
304 306 316 310 310 310 309 310 311 312 313 311 311 311 311 310 310 309 309 308 307 307 306 304 304 305 303 301 299 299 300 300 300 300 297 296 294 292 292 290 290 290 289 289
313 314 311 311 310 312 312 311 311 312 312 312 312 311 310 309 307 306 306 305 303 304 302 301 300 300 301 300 299 299 298 295 293 292 291 290 290 289 289 289 289 289 289 289
312 312 311 313 312 312 312 312 312 313 313 313 312 310 308 306 304 303 302 301 301 300 300 299 298 298 297 296 294 292 291 290 290 290 289 289 289 289 289 289 289 290 290 290
310 311 311 312 312 312 312 313 313 313 313 313 312 307 306 303 302 301 300 299 299 299 298 297 294 294 292 292 291 290 290 290 290 289 289 289 289 289 290 290 290 290 290 289
313 312 313 312 312 312 312 313 313 313 311 309 309 308 304 302 300 299 299 298 298 297 295 293 292 291 291 290 290 290 289 289 290 290 290 289 289 287 286 285 283 283 282 282
313 313 313 312 311 311 312 312 312 312 311 309 305 305 302 300 298 298 297 296 295 293 292 292 291 290 289 289 290 290 289 289 287 285 284 283 282 282 282 283 281 281 281 280
313 312 307 308 308 309 310 309 308 308 306 306 304 301 300 298 297 296 294 293 292 291 291 290 289 289 289 289 287 286 284 283 283 282 282 281 281 280 280 280 280 280 279 279
308 311 311 309 307 306 307 306 305 303 302 300 299 299 298 296 294 293 291 291 290 290 289 289 289 288 286 285 284 283 282 282 281 281 280 280 279 279 278 278 278 278 278 279
308 308 307 307 304 303 303 302 303 300 299 298 298 296 295 294 293 292 292 290 289 289 288 287 286 285 284 283 282 281 281 280 280 279 279 278 278 278 277 277 277 277 277 278
307 299 299 299 301 301 301 300 301 299 296 296 295 295 294 293 292 291 289 288 287 287 286 284 283 282 282 281 281 280 279 279 278 278 278 277 277 277 276 276 276 276 276 276
308 307 305 305 302 300 298 299 298 296 296 295 294 294 293 290 289 288 287 286 285 284 283 282 282 281 280 280 279 279 278 278 277 277 277 276 276 276 276 275 275 275 275 275
306 305 303 302 301 300 298 296 296 295 294 294 292 290 289 287 287 287 285 284 283 283 282 281 280 280 279 279 278 278 277 277 276 276 276 275 275 275 275 274 274 274 274 274
302 301 301 299 299 299 296 295 294 292 291 290 289 288 287 286 285 284 283 282 282 282 281 280 279 279 278 278 277 277 276 276 276 275 275 274 274 274 274 273 273 273 273 273
301 300 300 299 297 296 296 292 290 289 288 288 288 287 286 285 284 283 282 282 281 280 279 279 278 278 277 277 276 276 275 275 274 274 274 274 273 273 273 272 272 272 272 272
299 298 297 296 294 293 291 289 289 290 290 287 285 285 284 284 283 282 281 280 279 279 278 278 277 276 276 275 275 275 274 274 273 273 273 273 273 272 272 271 271 271 270 270
296 296 295 294 291 289 288 289 289 287 286 285 284 283 282 282 281 280 280 279 278 278 277 276 275 275 274 274 274 273 273 273 272 272 272 272 271 271 270 270 270 270 270 270
295 293 291 290 291 291 290 286 285 284 284 284 283 282 281 280 279 279 279 278 277 276 275 274 274 273 272 272 272 272 272 272 271 271 271 270 270 270 269 269 269 269 269 269
292 292 292 291 291 289 286 284 284 283 283 282 281 280 280 279 278 278 277 276 276 275 274 273 272 271 271 271 271 271 271 271 271 270 270 269 269 269 269 269 269 269 269 269
291 290 289 288 286 285 284 283 283 283 282 281 280 279 278 277 277 276 276 275 274 273 272 271 271 270 270 270 270 270 270 270 270 269 269 269 269 268 268 268 268 268 268 268
287 287 286 285 284 283 283 282 282 281 280 280 279 278 277 276 275 275 274 273 272 271 271 270 270 269 269 269 270 270 269 269 268 268 268 268 268 268 268 268 267 268 268 268

GFSNGP_850_thetae_045.txt.gz
Theta_e
314 313 315 317 318 316 318 319 321 321 316 318 317 316 313 312 312 315 317 321 322 323 324 325 326 326 327 326 326 326 326 325 324 323 321 319 316 314 311 307 303 301 301 299
315 314 315 318 316 316 316 315 316 315 316 315 313 311 311 312 315 315 315 317 317 318 318 319 318 318 319 319 319 320 321 322 321 320 318 314 310 309 305 303 301 300 299 300
318 312 314 317 316 316 316 315 317 318 319 313 312 312 311 311 312 312 313 313 313 313 312 312 313 313 314 315 316 317 318 318 317 314 311 308 306 304 301 300 300 300 300 301
316 311 320 318 312 314 316 315 314 313 313 312 311 309 309 310 312 312 312 312 313 313 313 313 313 313 313 313 314 315 315 314 312 310 307 304 302 300 299 299 300 301 300 299
319 318 316 314 313 314 315 316 313 314 311 309 309 310 309 310 311 311 312 313 313 313 313 313 313 313 313 313 313 312 311 310 308 305 303 302 301 300 300 300 300 299 297 294
311 319 321 318 313 310 311 316 312 310 311 310 311 316 314 309 310 311 312 312 312 312 312 312 312 312 312 312 310 309 307 306 304 302 301 301 301 300 300 299 297 294 293 292
312 319 317 313 311 310 317 318 310 310 310 311 313 311 312 309 310 310 309 310 310 310 311 310 310 309 310 307 306 304 302 300 300 300 301 300 300 298 295 293 292 291 290 290
312 317 321 310 309 315 316 311 310 310 310 311 310 310 310 308 308 307 308 308 308 309 308 306 306 306 304 303 300 299 300 300 300 299 297 295 293 292 291 290 289 289 289 289
318 320 315 310 314 312 312 311 310 311 311 312 309 308 307 307 306 306 306 306 305 306 304 302 301 302 302 301 299 299 297 295 293 292 291 290 289 289 289 289 289 289 289 289
317 316 313 312 311 311 311 312 312 312 312 312 310 308 306 305 304 304 303 302 302 302 301 299 299 299 298 296 294 292 291 290 290 290 289 289 289 289 289 289 289 288 287 285
314 312 312 313 313 313 312 312 311 311 312 312 310 307 306 304 303 302 301 300 299 299 298 297 295 295 293 292 291 290 290 289 289 289 289 289 288 286 284 283 282 281 281 280
317 315 315 316 316 315 313 312 312 312 311 310 310 309 306 303 301 300 299 298 298 297 296 294 292 292 291 290 290 289 289 289 288 286 285 284 284 283 282 282 281 280 280 279
314 314 313 313 313 313 312 312 312 312 312 310 307 307 305 302 299 298 298 297 296 295 293 292 291 290 289 289 289 288 286 285 284 283 283 282 282 281 281 281 280 280 279 279
313 313 311 311 311 310 310 310 310 310 309 308 306 303 302 299 297 297 296 295 293 292 291 290 289 289 288 287 285 284 284 283 283 282 281 281 280 280 279 279 278 278 278 278
311 312 311 312 309 309 309 309 307 306 304 303 302 301 300 298 297 295 294 292 291 290 289 289 288 287 285 284 283 283 282 282 281 280 280 279 279 279 278 278 278 277 277 277
310 308 308 309 308 306 306 304 306 301 300 299 298 297 296 296 294 293 291 290 290 289 288 287 285 285 284 283 282 282 281 280 280 279 279 278 278 278 277 277 277 276 276 276
306 302 303 304 300 300 302 301 303 300 298 298 297 295 294 293 292 291 290 289 288 287 286 284 284 283 283 282 281 281 280 279 279 278 278 277 277 277 276 276 275 275 275 275
308 308 305 306 302 300 300 300 300 299 298 297 296 295 293 292 292 290 288 287 286 285 284 283 283 282 282 281 280 279 279 278 278 277 277 276 276 276 275 275 275 274 274 274
308 311 306 303 302 301 300 299 298 298 296 295 294 293 292 290 288 288 287 286 284 283 283 282 281 281 280 280 279 278 278 277 277 276 276 275 275 275 274 274 274 273 273 273
303 303 301 299 298 299 298 297 296 295 294 294 292 290 288 288 289 286 285 284 283 282 281 281 280 279 279 278 278 277 276 276 276 275 275 274 274 274 273 273 272 272 272 271
299 298 298 298 297 297 296 295 295 294 292 291 288 289 289 288 284 283 282 282 281 280 280 279 279 278 277 277 276 276 275 275 275 274 274 273 273 272 272 271 271 271 271 271
297 297 296 295 295 294 294 293 292 290 288 289 289 288 285 284 282 281 280 280 280 279 278 278 277 277 276 276 275 275 274 274 273 273 272 272 272 271 270 270 270 270 270 270
295 295 294 294 294 291 289 288 287 290 290 288 285 284 283 282 281 280 279 279 278 278 277 276 276 275 275 274 274 273 273 273 272 272 271 271 270 269 269 269 269 269 269 269
294 294 293 291 289 288 287 287 288 285 284 283 282 281 280 280 279 279 278 278 277 276 276 275 275 274 274 273 273 272 272 271 271 271 270 269 269 269 269 269 269 269 269 269
291 290 289 288 288 287 286 285 284 283 282 282 281 280 280 279 279 278 277 277 276 275 275 274 273 273 272 272 271 271 270 270 270 269 269 268 268 268 268 268 268 268 268 268
289 287 286 286 286 285 284 283 283 282 282 281 281 280 281 280 278 277 276 276 275 274 273 273 272 271 271 270 270 269 269 268 268 268 268 267 268 268 268 268 268 268 268 268
285 285 284 284 283 283 282 282 282 281 281 280 280 279 278 278 277 276 275 274 273 272 272 271 270 270 269 269 268 268 268 267 267 267 267 267 267 267 267 267 267 268 267 267

GFSNGP_850_thetae_048.txt.gz
Theta_e
318 318 318 318 318 320 320 321 322 322 321 321 321 322 321 319 316 318 319 323 325 327 329 329 329 329 328 327 327 327 326 326 324 322 322 320 319 319 318 317 315 313 309 305
320 319 318 318 318 318 319 319 321 321 321 320 321 320 318 317 318 319 320 321 322 322 323 323 324 324 323 322 321 321 321 321 321 319 319 316 315 312 310 307 305 303 302 301
319 319 319 320 320 319 320 321 321 321 321 321 320 320 319 318 318 318 318 317 317 316 316 316 316 315 315 316 316 316 317 317 317 316 314 311 308 306 305 303 303 301 301 301
321 318 327 319 319 320 320 321 321 320 320 320 319 318 316 317 317 315 313 313 313 312 313 313 313 313 313 313 314 314 314 314 313 311 309 307 305 303 302 301 300 301 301 300
327 322 320 318 317 319 320 321 320 320 319 318 315 314 313 314 314 313 312 311 311 311 312 312 312 312 312 312 312 311 311 309 308 306 305 303 302 301 301 301 301 299 298 297
319 323 330 320 319 318 318 322 319 318 318 318 315 319 318 311 309 309 309 310 310 311 311 312 311 311 310 310 309 308 306 304 302 301 301 300 301 301 301 300 297 295 294 294
324 326 323 320 317 315 321 323 318 317 317 316 317 318 315 310 308 308 308 309 309 308 309 310 309 309 309 307 305 304 302 301 301 301 301 300 300 298 295 294 293 291 290 290
323 327 326 316 314 320 321 319 318 317 317 316 315 313 310 308 306 306 306 308 306 306 306 304 305 306 304 304 302 301 302 302 301 300 298 296 293 292 291 291 290 291 291 291
322 323 322 315 319 317 319 319 316 317 316 315 312 310 308 307 305 305 304 304 303 303 303 302 302 302 301 300 301 301 300 298 295 292 291 290 290 290 292 292 291 291 289 289
320 320 320 318 317 316 315 316 315 315 315 314 311 309 307 305 304 304 303 303 302 301 300 300 299 299 300 300 298 295 293 291 290 290 290 289 289 288 287 286 285 284 285 285
321 321 317 317 317 317 315 313 313 313 314 312 310 308 306 305 303 303 302 301 300 299 298 297 298 298 296 294 292 291 290 290 289 289 288 286 285 284 284 283 282 282 281 281
322 320 320 321 320 318 316 313 312 313 312 311 309 307 305 304 303 301 300 299 298 297 297 297 296 294 292 291 290 289 289 288 287 285 285 284 283 283 283 282 281 281 280 279
319 316 316 315 313 315 315 313 312 311 311 309 307 306 304 302 301 300 298 297 295 295 295 294 292 291 290 289 289 288 286 285 285 284 283 282 282 281 282 281 280 280 279 279
314 314 314 312 312 311 311 312 310 308 307 307 305 303 301 300 297 297 296 294 293 294 293 291 290 289 288 287 286 286 285 284 283 282 282 281 280 280 279 279 279 279 278 278
312 312 311 311 310 309 307 310 306 304 303 302 301 299 298 296 296 294 292 291 291 290 288 288 288 287 286 285 284 284 283 282 282 281 280 280 279 279 278 278 278 277 277 277
309 308 308 307 306 309 307 305 302 301 300 298 297 297 296 294 291 289 289 289 290 287 285 286 285 284 284 283 283 282 282 281 280 280 279 279 278 278 277 277 276 276 276 275
307 306 304 303 303 303 303 301 302 299 298 296 294 293 292 291 290 290 291 291 289 287 285 284 284 283 283 282 281 281 280 280 279 279 278 278 277 277 276 276 275 275 274 273
307 309 308 307 304 302 300 299 298 298 299 296 294 293 292 292 291 290 290 289 286 285 284 283 282 282 281 281 280 280 279 279 278 278 277 277 276 276 276 275 274 273 273 273
305 307 305 303 301 300 299 297 296 296 295 294 294 293 293 292 291 290 288 285 284 283 282 281 281 281 280 280 279 279 278 278 277 277 276 276 276 275 275 274 273 273 272 272
299 299 300 298 296 298 296 296 296 294 294 294 293 292 291 290 288 287 286 284 282 282 281 280 279 279 279 279 278 278 277 276 276 276 275 275 275 274 274 273 273 272 272 271
295 295 295 295 295 295 295 295 295 293 292 292 291 289 288 288 287 286 283 282 281 280 280 279 279 278 278 277 276 276 276 275 275 274 274 274 274 273 272 272 271 271 270 270
293 294 293 293 294 293 293 293 293 292 291 289 289 289 288 287 285 282 281 280 280 279 279 278 278 277 276 275 275 274 274 274 273 273 273 273 272 272 271 270 270 270 270 269
292 293 293 293 293 292 292 292 290 289 288 288 287 286 284 283 281 280 280 279 279 278 278 277 277 276 275 274 273 273 273 273 273 272 272 271 271 270 270 269 269 269 269 268
291 291 290 290 290 289 287 286 287 286 286 284 283 282 281 281 280 280 279 278 278 277 277 277 276 274 273 273 272 272 272 271 271 271 270 270 268 268 268 268 268 268 268 268
288 287 287 287 287 286 286 284 284 283 282 282 281 281 280 280 279 280 279 278 277 276 276 275 274 272 272 271 271 271 271 270 269 269 268 267 267 267 267 267 267 267 267 268
287 285 284 284 283 283 283 283 283 282 281 281 281 280 280 279 279 278 277 276 275 275 274 273 272 271 271 270 270 270 269 268 267 266 267 267 266 267 267 267 267 267 267 267
283 283 283 282 282 282 281 281 281 280 280 279 278 278 278 277 276 275 275 274 273 272 272 271 270 270 269 269 268 268 267 266 266 267 267 266 266 266 266 266 267 267 267 267

GFSNGP_850_thetae_051.txt.gz
Theta_e
319 320 320 320 321 321 321 322 323 322 321 322 322 322 322 321 321 320 320 322 325 325 327 329 331 331 332 330 329 327 326 325 325 324 323 321 319 318 318 317 316 315 313 310
320 319 319 319 319 319 319 320 321 321 321 321 320 320 321 322 320 320 321 321 324 327 329 331 331 331 329 326 325 323 321 319 320 318 314 316 315 314 311 311 308 307 306 304
322 320 320 323 319 319 319 319 320 321 321 321 321 321 320 320 320 321 322 323 324 326 326 325 326 325 323 321 319 318 316 315 315 315 315 313 310 308 305 304 303 303 302 301
325 322 326 320 320 320 320 320 320 320 321 321 320 319 319 320 320 321 321 322 321 320 320 320 320 318 317 316 315 313 312 312 312 312 310 307 305 305 304 302 301 301 302 302
327 325 320 319 320 320 320 320 320 320 321 320 319 319 319 318 320 320 318 317 317 316 316 316 315 315 314 313 311 310 309 308 307 306 305 305 303 302 302 302 302 301 299 298
325 324 325 322 320 320 320 323 320 320 320 319 318 321 320 317 318 317 316 315 314 314 314 313 313 312 311 310 309 308 307 306 305 305 304 303 302 302 301 300 299 298 297 296
327 326 322 320 320 320 323 324 320 320 319 319 319 319 319 317 315 314 313 313 312 312 312 311 311 310 310 309 307 306 305 305 304 303 303 302 301 299 298 297 296 295 292 293
326 328 328 320 320 322 322 321 321 320 319 319 318 319 317 315 313 313 312 311 311 311 310 310 310 309 308 307 305 304 303 303 303 302 299 298 297 295 294 294 294 294 294 293
323 324 322 319 320 320 320 321 322 321 320 319 319 317 315 313 312 311 310 310 310 310 309 309 308 308 306 305 303 302 301 299 298 296 295 294 294 294 294 293 293 291 289 289
322 321 322 322 320 320 321 321 321 321 319 319 319 316 314 312 311 310 310 309 309 308 307 306 306 305 303 301 300 299 297 296 295 294 293 292 292 289 289 288 287 286 287 286
319 319 319 320 321 320 320 319 319 318 318 318 318 315 313 311 310 310 309 308 307 306 305 303 301 300 298 298 297 296 295 293 292 290 290 288 287 286 285 285 284 283 283 282
321 317 321 321 320 320 321 320 318 317 317 317 316 314 312 311 310 309 308 306 305 303 301 299 297 297 296 295 295 293 291 290 289 288 287 287 286 286 285 284 283 282 282 281
318 318 319 320 318 318 319 320 319 316 316 316 314 313 311 310 308 307 305 304 303 300 298 296 294 293 292 291 291 290 288 287 286 285 286 285 284 284 285 284 283 282 281 280
317 316 316 315 316 315 315 317 316 315 315 314 313 311 309 308 305 304 303 301 298 295 293 291 289 288 287 288 288 287 286 285 285 285 284 283 283 282 282 282 282 282 281 279
317 315 314 313 312 311 311 311 312 312 312 311 310 309 307 305 303 302 299 296 293 291 289 287 286 286 287 286 285 284 284 284 283 283 282 281 281 280 280 280 281 280 280 279
314 311 310 310 311 309 308 308 309 308 308 307 307 305 303 301 299 295 293 291 289 287 286 287 288 286 284 284 284 284 283 282 281 281 281 280 279 279 279 279 279 279 278 278
311 312 311 310 309 307 307 307 306 305 304 303 301 300 298 295 291 290 289 288 288 289 289 288 287 284 287 287 283 282 281 281 280 279 279 279 278 278 277 277 277 277 277 276
308 309 309 309 309 306 305 303 302 300 299 298 296 294 291 290 289 288 288 288 289 288 284 285 288 287 284 282 281 281 280 279 279 278 278 278 277 276 276 276 276 275 275 275
303 304 304 304 304 302 300 297 297 297 296 295 294 291 290 289 288 287 287 288 285 286 286 286 283 281 281 280 280 279 279 278 277 277 277 277 276 275 275 274 274 273 273 273
299 300 299 299 299 298 295 294 293 292 291 292 291 289 289 288 289 288 287 285 285 285 284 281 280 280 280 279 278 278 277 277 276 276 275 275 274 273 273 273 272 272 272 272
293 294 294 293 292 291 290 290 291 290 290 290 291 289 288 287 287 286 286 285 283 281 280 280 279 279 278 278 277 277 276 276 275 274 273 273 272 272 272 271 271 271 270 270
290 290 289 289 289 289 289 290 290 290 290 290 289 288 287 285 284 283 282 283 281 280 279 279 278 277 277 276 276 276 275 274 273 272 272 271 271 270 270 270 269 269 268 268
289 289 290 290 289 289 290 290 289 289 288 287 285 285 284 282 281 282 281 280 279 278 277 278 278 279 278 276 275 274 273 272 271 271 270 270 269 269 269 268 268 267 267 267
287 287 287 287 288 289 287 286 286 286 285 284 283 282 282 282 282 281 280 279 278 277 277 278 277 277 276 274 272 271 270 270 270 270 270 269 268 268 267 267 266 266 266 266
286 285 285 285 285 283 283 283 283 282 282 282 281 281 281 281 280 279 279 279 278 276 275 276 275 274 273 271 270 270 269 269 269 268 267 267 267 267 266 266 265 265 265 267
283 282 282 282 282 282 282 281 281 281 281 280 279 279 279 279 279 278 277 276 276 275 273 272 271 271 270 269 269 268 268 268 267 267 266 266 266 266 265 265 264 264 264 266
280 280 280 279 279 280 280 279 279 279 279 279 277 277 276 276 276 274 274 273 272 271 271 270 269 269 268 267 267 267 267 266 266 265 264 264 264 264 264 263 263 265 266 267

GFSNGP_850_thetae_054.txt.gz
Theta_e
321 321 322 323 322 322 323 323 328 327 324 322 323 323 323 321 322 321 320 322 323 327 330 331 331 332 333 332 332 332 331 330 330 329 325 323 322 321 320 319 318 317 316 315
323 320 320 321 321 321 321 321 321 322 323 322 322 321 322 321 322 321 320 320 321 324 328 330 331 331 332 332 331 330 329 327 325 323 321 319 317 316 315 314 313 312 309 306
323 321 320 320 321 321 320 321 320 321 322 322 321 321 321 320 320 321 320 320 321 324 328 330 332 332 330 328 327 325 324 322 318 316 315 315 312 311 309 308 307 306 304 302
324 322 323 320 321 320 320 320 320 319 320 320 321 320 320 320 320 320 321 323 324 327 330 330 330 327 324 323 321 319 316 314 314 313 312 309 307 307 306 304 302 302 302 301
325 324 321 320 320 320 321 320 320 320 320 320 320 320 320 320 320 321 322 323 324 324 324 325 323 321 319 317 315 313 312 311 310 309 307 307 305 304 303 304 302 301 300 298
327 324 324 322 321 320 321 321 321 320 322 321 320 322 321 319 319 321 321 321 320 320 320 319 318 316 315 313 311 310 309 308 307 307 306 304 303 303 302 301 300 299 298 297
325 326 324 320 320 319 322 322 322 321 321 321 321 320 319 319 320 320 319 318 317 317 316 315 315 313 312 311 309 308 307 307 306 306 305 304 302 301 300 298 297 296 293 293
324 326 326 321 320 321 321 320 321 321 321 319 319 319 319 319 319 318 316 315 315 314 314 313 312 311 310 309 308 307 307 306 305 304 303 301 299 298 296 295 295 294 294 293
322 323 323 321 320 320 320 321 322 322 321 321 320 320 319 318 317 316 315 314 313 313 312 312 311 310 309 307 306 305 304 303 302 299 298 297 296 295 295 295 294 294 292 288
321 319 317 321 321 320 320 320 321 322 322 321 320 319 318 316 315 314 313 312 312 312 311 310 310 309 307 306 304 302 301 299 297 296 295 294 294 292 293 292 290 287 286 286
320 319 318 316 318 319 321 320 320 320 320 319 320 319 317 315 314 313 312 312 311 310 310 309 308 306 304 303 301 299 297 296 295 294 292 291 290 289 289 287 285 285 284 283
321 319 319 320 320 318 316 317 321 320 319 318 319 319 316 315 313 312 311 311 310 309 307 306 304 302 300 299 298 297 295 293 292 290 289 288 288 287 286 286 285 284 283 282
317 315 316 318 318 317 317 318 320 321 319 318 318 318 316 313 312 311 310 309 308 306 303 301 299 298 297 296 295 293 292 291 289 288 287 287 286 286 286 286 284 283 282 282
317 317 318 318 317 316 316 315 318 319 318 317 317 316 314 312 311 310 308 307 305 302 299 297 295 293 293 292 292 291 289 286 286 287 286 285 285 284 284 284 283 282 282 281
315 317 316 315 314 313 312 313 314 315 315 316 316 314 312 311 309 307 306 304 300 297 294 291 289 287 289 289 287 285 285 286 286 286 285 284 283 282 281 281 281 281 280 280
313 313 312 312 312 312 310 310 311 311 312 312 312 311 309 307 305 303 300 297 294 291 288 286 286 284 284 284 285 285 285 287 288 285 283 282 281 281 280 280 280 279 279 279
311 312 311 311 313 311 309 309 309 308 308 308 307 306 305 303 299 296 294 292 288 286 286 285 283 282 282 285 288 290 288 285 282 282 281 280 280 279 279 278 278 278 278 277
306 307 307 308 310 309 306 305 305 305 304 303 303 302 300 297 294 291 290 288 288 286 286 287 287 287 288 288 286 285 284 283 281 280 279 279 279 278 277 277 277 276 276 276
301 302 304 305 305 304 302 301 301 300 298 298 298 296 294 292 291 289 288 288 288 287 285 286 286 285 283 282 282 282 280 280 279 279 278 278 277 277 276 276 275 275 274 274
295 296 297 297 298 298 296 295 295 294 293 294 293 291 290 288 287 286 286 285 285 285 284 284 284 282 281 280 280 279 279 278 278 277 277 276 276 275 275 274 274 273 273 272
290 290 290 290 289 290 290 290 290 289 289 289 288 286 286 285 285 285 286 285 282 283 283 282 282 282 280 278 278 278 278 278 277 276 275 274 274 273 273 273 272 272 271 271
288 288 288 288 288 287 288 288 288 288 288 287 287 285 284 283 284 284 284 284 282 282 281 281 279 279 278 278 279 278 277 275 275 274 273 273 272 272 271 271 271 270 270 269
287 287 287 287 287 286 287 287 286 286 285 285 284 284 283 283 283 283 282 281 280 279 279 278 278 278 278 277 276 275 274 273 272 272 272 271 271 271 270 269 269 268 268 267
286 286 286 286 287 286 285 284 284 284 283 283 282 282 282 282 281 281 280 279 278 277 278 277 276 276 275 274 272 272 271 271 271 270 270 270 270 269 269 268 268 267 267 266
285 284 284 284 283 283 283 282 282 282 281 281 281 281 281 281 280 278 278 278 277 276 275 274 274 273 272 271 271 270 270 270 269 269 268 268 268 267 267 267 267 266 265 265
282 282 282 282 282 282 282 282 281 281 280 279 279 278 278 277 277 276 276 275 274 273 273 272 271 271 270 270 269 269 269 268 268 268 267 267 266 266 265 265 265 265 264 264
280 279 279 279 279 279 279 278 279 279 278 278 277 276 276 275 275 274 274 273 272 272 271 271 270 270 269 268 268 267 267 267 267 266 266 265 265 264 264 264 263 263 264 264

GFSNGP_850_thetae_057.txt.gz
Theta_e
319 320 321 322 322 320 321 322 324 323 323 322 320 318 319 321 321 321 321 326 326 326 325 326 329 331 334 332 331 330 331 330 330 330 329 328 327 325 323 322 322 321 320 318
318 319 320 322 322 321 320 323 323 323 323 322 321 321 320 322 321 321 321 322 326 327 329 328 330 330 331 332 332 331 330 330 329 329 329 328 325 322 320 319 318 317 316 314
319 319 319 319 319 320 320 319 320 319 317 317 320 318 319 320 320 321 321 320 320 327 330 331 330 328 331 332 331 330 330 329 327 327 326 322 321 319 316 315 314 313 311 308
316 317 322 319 317 318 318 319 318 317 317 316 317 319 319 320 320 320 321 320 320 323 329 331 331 331 331 331 331 328 327 326 323 322 321 318 315 313 311 309 308 307 305 302
320 321 319 320 318 318 318 318 317 317 316 316 318 319 319 320 320 320 320 321 322 326 328 330 331 331 331 329 327 325 322 320 318 316 314 312 310 308 307 305 303 301 301 299
316 321 321 319 318 319 319 318 319 319 317 318 317 316 314 319 319 320 321 322 323 325 329 329 328 328 327 325 323 321 318 315 313 312 310 309 307 305 303 302 301 300 298 298
317 320 318 319 318 319 319 317 319 319 320 320 316 317 319 319 319 319 320 322 324 324 324 324 324 324 323 321 318 315 312 311 310 309 308 307 305 303 302 300 300 298 297 296
317 319 320 319 320 318 316 318 318 319 320 319 319 318 319 319 319 320 320 321 321 320 320 319 318 318 316 314 311 310 309 308 307 307 306 304 303 300 300 299 298 297 295 293
317 316 318 316 319 319 319 317 321 321 322 320 320 319 319 319 319 319 319 318 318 318 317 316 315 315 312 310 309 308 308 307 306 305 303 302 300 298 298 297 296 294 294 293
317 316 314 315 316 315 317 317 319 319 321 320 320 320 319 319 319 318 317 316 315 315 314 313 312 311 311 309 308 307 307 306 303 301 300 298 296 295 295 295 294 294 293 290
316 316 315 317 316 315 315 319 317 320 318 319 320 320 319 318 317 317 315 314 314 313 313 312 311 310 309 308 307 306 304 301 299 297 297 296 295 294 294 294 292 289 287 286
315 315 315 318 318 318 316 315 316 316 318 319 319 320 319 317 316 315 314 313 313 312 311 310 309 308 306 306 305 302 300 297 295 295 294 294 293 291 289 287 286 285 284 284
311 313 316 316 317 317 316 316 316 316 317 320 318 319 319 317 315 313 312 312 311 310 309 307 306 304 302 301 300 298 296 295 293 291 290 289 288 287 287 286 285 285 284 283
316 317 317 317 316 315 314 314 315 315 317 318 318 319 318 315 313 312 311 310 309 308 305 303 302 300 298 297 297 295 294 292 290 288 287 287 286 286 286 286 284 283 282 282
311 313 313 313 314 312 312 313 312 313 314 316 316 316 315 312 311 310 309 308 306 303 299 298 296 293 292 293 293 292 290 289 287 286 286 286 288 287 283 282 282 281 281 281
310 311 312 312 312 311 311 310 310 310 312 312 313 312 311 310 308 306 303 301 303 297 292 292 291 288 288 288 289 288 286 286 287 288 289 286 285 285 285 281 281 280 280 280
306 306 308 309 309 309 308 308 308 308 308 309 307 305 306 305 302 299 296 295 294 290 289 290 289 288 287 286 285 287 289 288 288 287 286 285 283 281 281 280 279 279 278 278
302 302 304 306 306 306 306 305 305 304 304 303 302 301 300 299 295 291 290 289 290 288 288 288 288 287 287 287 287 287 286 285 284 283 282 283 281 279 278 278 277 277 277 277
298 299 300 302 301 302 301 300 300 299 297 296 297 296 295 293 291 289 288 289 289 288 285 285 285 285 286 285 285 284 283 282 282 281 280 279 278 277 277 277 276 276 275 275
291 292 294 294 294 295 293 292 293 293 292 293 292 290 289 288 288 288 288 286 285 285 284 284 284 285 284 283 282 282 281 279 278 278 277 277 277 276 275 275 274 274 273 273
288 289 289 289 289 289 289 289 290 289 288 289 290 288 286 285 286 286 287 286 282 283 283 283 283 282 282 281 280 279 279 278 278 277 276 275 274 274 273 273 273 272 272 271
286 286 286 286 286 286 286 287 287 286 286 286 285 285 285 284 285 284 283 283 281 281 281 281 280 280 279 278 277 277 276 275 274 274 273 273 272 272 272 271 271 270 270 269
285 285 286 286 285 285 285 285 285 285 285 284 284 284 284 283 283 283 281 279 279 279 279 278 277 277 277 276 275 274 273 273 272 272 271 271 270 270 270 269 269 268 268 267
285 285 284 284 284 284 283 283 283 282 282 282 282 282 282 282 280 279 278 278 277 277 276 276 275 275 274 273 272 272 271 270 270 270 269 269 269 269 268 268 267 267 266 266
283 283 283 283 282 282 281 281 281 281 281 281 280 280 279 279 279 277 277 276 275 275 274 273 272 272 271 270 270 270 269 269 268 268 268 267 267 267 266 266 265 265 265 265
281 281 281 281 281 281 281 280 279 279 278 278 277 277 276 276 275 275 275 274 273 272 271 271 270 270 269 269 268 268 267 267 267 267 266 266 266 265 264 264 264 264 264 264
279 279 279 279 278 279 279 279 278 277 276 276 276 275 274 274 274 273 272 272 271 271 270 270 269 269 268 268 267 267 266 266 265 265 265 264 264 264 263 263 263 263 263 263

GFSNGP_850_thetae_060.txt.gz
Theta_e
318 317 318 319 320 319 319 319 320 319 322 321 320 320 320 322 319 319 322 324 324 323 323 322 320 326 330 328 329 329 328 327 328 327 323 324 327 326 323 325 326 325 322 321
319 318 317 318 319 320 320 318 319 320 321 320 320 321 320 319 320 320 320 322 325 324 323 323 322 320 328 330 331 331 330 329 328 328 328 326 326 325 325 324 324 322 321 320
319 316 318 318 318 319 319 319 319 320 319 320 320 319 319 319 319 321 320 320 323 325 324 324 323 322 321 331 332 331 331 329 329 327 327 326 326 324 323 322 321 319 317 316
317 314 321 318 317 317 318 318 318 317 316 318 318 320 320 320 321 321 320 320 320 324 324 325 325 325 325 327 330 330 330 329 328 328 326 326 325 321 320 319 316 314 313 311
318 319 318 319 318 317 318 318 317 317 315 314 316 316 318 319 320 320 320 320 320 321 324 327 329 329 329 329 330 329 328 328 326 326 324 322 319 319 317 314 312 310 307 305
314 317 320 317 317 317 317 317 316 316 316 316 316 313 313 320 320 320 320 320 319 320 323 328 330 330 330 330 329 328 327 326 325 323 321 320 318 314 311 309 306 304 302 301
315 317 316 316 318 318 320 318 317 318 318 318 316 316 319 319 320 319 319 319 320 321 324 330 331 330 329 328 326 324 323 321 320 318 316 313 310 309 307 305 303 301 300 299
314 318 317 317 319 319 316 318 319 319 319 319 319 318 318 319 318 319 319 320 321 322 327 328 330 329 327 326 324 322 319 317 314 312 310 308 307 305 303 302 301 299 298 297
314 314 314 317 317 317 317 316 317 317 318 320 318 317 318 319 319 319 318 318 320 322 324 325 325 325 325 323 321 318 315 311 309 308 307 306 304 302 301 300 300 298 296 296
315 315 316 315 315 316 316 316 316 319 317 316 318 319 318 319 319 320 319 320 320 321 320 320 319 319 318 318 315 313 310 308 307 306 304 303 301 300 300 299 297 297 295 293
314 314 315 315 316 318 317 315 317 316 319 318 317 318 319 319 319 319 319 318 318 318 317 316 315 315 314 313 312 310 308 307 305 305 303 300 298 298 296 296 296 295 294 293
314 314 313 314 312 314 317 315 315 315 317 317 317 318 319 319 318 317 317 316 316 315 315 313 312 311 310 309 309 308 307 305 303 301 299 297 296 294 293 293 292 290 289 288
310 311 314 314 316 317 317 316 316 316 315 314 315 317 319 318 316 316 315 314 314 313 312 311 310 309 307 307 306 306 305 301 298 297 296 295 293 292 292 289 286 285 284 283
310 314 315 313 312 313 313 313 313 313 314 316 317 317 318 316 315 314 313 312 312 311 309 308 308 306 304 304 303 303 300 296 295 293 291 289 289 288 286 287 290 290 286 286
308 310 310 311 311 311 311 311 312 312 312 314 315 315 315 314 312 310 308 308 309 307 304 303 303 300 297 298 299 296 294 291 290 289 289 288 287 287 289 288 286 285 285 283
306 307 309 308 307 308 309 309 309 308 308 308 309 309 307 308 306 303 301 299 301 298 295 296 296 292 292 293 294 293 292 291 290 288 286 287 288 287 286 285 284 282 281 281
302 302 304 304 304 304 303 303 305 304 302 303 301 300 300 299 297 294 292 293 293 289 290 291 290 290 291 291 291 290 289 287 288 288 287 286 285 284 283 282 281 280 279 279
297 298 299 301 300 300 300 301 301 300 300 297 297 297 295 295 292 289 288 288 289 289 289 288 287 287 287 287 287 287 287 287 286 285 284 283 282 281 280 279 278 277 277 277
294 294 294 296 295 295 295 295 295 294 294 293 293 292 291 289 288 288 288 289 289 288 284 285 286 286 286 286 286 285 285 284 283 282 282 281 280 279 277 277 276 276 275 275
289 290 290 290 291 290 289 289 290 290 288 290 289 288 287 287 287 287 287 285 284 283 283 284 284 284 284 283 283 283 282 281 280 279 278 277 276 276 275 275 274 274 273 273
286 287 287 287 286 286 286 287 288 287 287 288 288 286 286 285 285 285 285 283 280 281 282 282 283 282 282 281 281 280 279 278 277 277 276 275 274 273 273 273 272 272 271 270
285 285 285 285 285 284 285 285 285 285 285 285 284 284 284 283 283 282 281 281 279 280 280 280 279 279 279 278 277 277 276 275 275 274 273 272 272 271 271 270 270 269 269 268
283 283 284 284 283 283 284 284 284 284 283 283 283 282 282 281 280 280 279 277 278 278 278 278 277 277 276 276 275 274 273 272 272 271 271 270 270 269 269 268 268 268 267 267
283 283 282 282 283 283 282 282 282 282 282 281 281 281 281 280 279 278 277 277 276 276 276 274 273 273 272 272 271 271 270 270 270 269 269 268 267 267 267 267 266 266 265 265
283 283 282 282 281 280 280 281 281 280 280 279 279 278 278 277 278 276 276 275 274 274 273 272 271 271 270 270 269 269 268 268 267 267 267 266 266 265 265 265 264 264 264 264
281 281 280 280 280 280 279 279 278 278 278 277 276 276 275 275 274 274 273 273 272 272 271 270 270 269 269 268 268 267 267 267 266 266 265 265 265 265 265 264 264 264 263 264
279 279 279 278 278 278 278 277 277 276 276 275 275 274 274 273 273 272 272 271 270 270 269 269 268 268 267 267 267 267 266 266 266 265 265 265 265 265 264 264 264 264 264 264

GFSNGP_850_thetae_066.txt.gz
Theta_e
319 317 317 317 315 315 318 315 316 317 316 315 315 316 316 320 320 319 319 320 321 320 322 322 322 322 323 323 324 324 324 324 324 323 322 321 321 321 322 319 320 321 321 320
315 315 315 315 314 315 317 315 315 315 316 314 315 317 316 318 319 319 321 321 322 319 320 322 322 321 322 322 322 323 324 324 324 324 323 324 323 322 322 323 321 321 321 323
313 313 314 312 315 312 312 314 315 316 315 315 316 316 315 318 319 319 321 321 321 321 321 320 322 322 322 322 323 323 324 324 325 325 325 324 324 324 324 323 324 323 323 325
310 310 314 310 314 312 315 312 311 311 313 314 315 318 319 319 319 320 320 321 322 322 321 321 320 321 323 322 322 324 325 325 325 325 325 325 325 325 324 324 323 323 323 321
309 311 310 310 309 313 313 312 311 314 314 313 316 316 314 317 318 318 317 319 321 319 319 321 320 321 324 323 324 323 324 325 325 326 326 326 325 324 324 323 321 319 320 321
311 312 309 307 313 316 316 313 315 315 317 315 314 315 316 317 319 318 318 318 318 318 317 319 320 320 323 325 324 324 323 325 326 327 327 325 324 323 321 320 320 320 319 317
314 315 311 309 313 316 320 311 312 314 315 315 315 313 315 316 317 318 318 319 319 318 317 318 318 318 322 325 326 326 326 327 328 326 325 324 322 321 321 320 319 317 315 311
311 314 312 312 312 315 314 311 311 313 314 314 315 316 316 317 316 317 317 318 318 318 318 318 318 321 324 326 327 327 328 326 325 324 324 322 321 320 319 318 315 312 309 306
309 308 308 312 311 311 311 312 313 314 313 312 314 315 316 316 317 317 318 321 321 321 321 321 322 324 325 326 325 325 323 323 324 323 322 321 317 315 311 309 309 306 305 303
309 308 309 310 310 310 311 312 312 314 315 312 315 315 316 317 316 316 317 320 322 323 322 321 323 325 325 326 325 325 324 323 321 319 317 314 312 310 309 306 305 305 303 301
307 307 309 308 311 311 312 313 313 314 316 313 313 314 315 315 316 316 316 317 320 323 324 324 324 325 325 325 324 323 320 319 317 315 312 310 307 305 304 303 302 302 301 300
307 307 307 307 310 308 310 311 312 314 315 315 315 313 313 314 315 316 315 315 317 320 319 320 322 321 321 321 320 320 318 316 314 312 309 307 306 304 302 301 301 300 299 298
306 306 305 308 308 308 307 308 308 307 308 310 313 312 312 313 312 311 314 313 314 316 316 316 315 318 316 313 314 315 314 311 308 307 306 305 304 303 302 296 295 294 293 292
303 304 307 306 305 305 305 304 307 303 302 306 309 310 309 309 308 308 308 310 311 311 310 309 311 310 307 308 310 309 308 307 305 303 303 300 297 294 294 293 292 291 290 290
301 301 303 302 302 303 302 303 308 303 297 301 303 303 303 303 300 296 296 297 300 301 302 301 303 302 300 302 303 303 301 299 297 295 294 293 292 291 291 290 290 289 287 286
296 299 301 299 299 303 296 298 301 296 292 293 297 297 295 295 294 293 293 294 298 294 293 294 294 292 293 295 296 295 294 293 292 291 290 290 289 289 288 287 286 284 283 282
294 296 294 295 294 293 293 292 291 290 288 288 289 290 291 290 290 290 289 289 290 289 289 290 289 290 291 291 292 291 290 290 289 289 288 287 286 285 284 284 283 281 280 280
290 290 290 290 290 289 289 289 290 289 288 287 287 287 288 289 285 285 286 287 287 287 287 287 288 288 288 288 289 288 288 287 286 286 285 284 283 282 282 281 280 279 278 278
287 286 286 286 286 286 285 285 286 285 285 286 287 287 286 286 285 285 286 286 285 284 282 284 285 286 286 285 286 285 285 285 284 283 282 281 281 280 279 278 277 276 276 275
284 284 284 284 284 284 283 283 283 283 283 285 284 285 283 283 284 283 284 282 280 280 282 283 283 283 283 283 283 283 283 282 281 280 280 279 278 277 276 275 274 274 273 272
282 283 283 283 282 283 283 283 284 283 283 284 284 283 282 281 282 282 282 280 278 280 280 281 281 280 280 281 281 280 280 279 279 278 277 275 274 273 272 272 271 271 270 270
283 283 283 283 283 283 283 283 283 282 282 281 281 281 281 280 280 280 278 278 277 278 279 279 279 278 278 277 276 275 274 274 273 273 272 271 271 270 270 269 269 269 268 268
282 282 282 282 282 281 282 282 282 281 281 281 280 280 280 278 278 278 277 276 276 276 276 274 273 273 273 273 272 272 271 271 271 270 270 269 269 269 269 268 268 268 268 268
281 281 281 281 281 281 281 280 280 280 279 279 278 278 278 278 276 275 274 273 273 273 272 271 271 271 271 270 270 270 270 269 269 269 269 269 268 268 268 268 268 267 267 267
281 281 281 281 280 279 279 279 279 278 278 277 277 276 276 275 275 273 272 272 271 271 271 270 270 269 269 269 269 269 269 269 268 268 268 268 268 268 267 267 267 267 267 266
280 280 279 279 279 278 278 278 278 276 276 275 274 274 273 272 272 272 271 270 270 269 269 269 269 269 269 269 269 268 268 268 268 268 268 267 267 267 267 266 266 266 266 266
279 279 278 278 277 277 276 276 275 274 273 273 273 272 271 271 270 270 269 269 268 268 268 268 268 268 268 268 268 268 267 267 267 267 267 267 267 267 266 266 267 266 266 266

GFSNGP_850_thetae_072.txt.gz
Theta_e
315 314 314 315 316 316 317 317 319 320 320 320 320 319 319 319 318 319 319 320 321 321 321 324 326 326 326 326 324 324 324 324 324 324 322 319 318 317 317 317 317 317 317 317
314 313 314 315 314 315 315 315 318 320 318 319 319 317 317 317 318 318 319 319 320 321 320 320 322 325 326 326 325 323 323 322 323 323 323 323 321 319 319 319 319 319 319 319
314 314 314 315 315 314 315 315 318 318 316 317 317 317 318 319 318 318 318 318 319 320 320 320 320 320 321 322 326 323 322 322 321 322 322 322 322 321 321 320 320 319 319 319
314 315 314 312 312 313 314 314 315 314 316 317 318 318 318 318 317 318 318 318 317 318 318 319 320 319 319 323 324 322 322 322 322 321 321 322 322 321 321 321 320 320 319 319
313 312 311 311 311 311 311 312 315 315 316 317 317 317 318 319 317 317 317 317 317 317 316 316 317 317 318 319 320 323 321 321 322 322 321 322 322 323 322 321 321 321 322 322
313 312 313 312 314 314 315 313 314 314 314 314 315 319 319 317 316 316 317 317 319 319 317 317 317 318 317 318 320 322 321 322 324 323 323 323 323 323 323 323 322 323 323 322
312 314 313 312 312 315 315 316 312 312 312 312 315 316 316 315 315 316 317 317 319 320 321 320 318 318 317 319 319 321 324 324 325 324 324 325 324 323 323 323 323 322 322 321
312 311 313 312 314 315 314 312 311 312 312 313 313 314 316 315 315 316 316 317 318 319 321 319 319 321 322 323 322 321 321 322 322 323 324 324 323 323 323 324 324 322 321 319
312 312 313 313 313 311 312 312 312 313 313 313 315 315 315 315 315 315 314 314 316 315 318 319 319 320 320 320 320 322 323 324 324 323 322 322 323 323 323 321 320 319 319 314
310 310 311 309 310 311 310 311 310 310 310 310 311 315 314 314 312 312 313 312 309 310 315 318 317 317 317 319 321 321 322 322 322 322 323 322 320 321 320 320 318 316 313 308
309 309 309 308 310 310 309 309 308 306 305 305 304 307 307 309 305 304 312 312 311 309 309 313 315 315 314 316 318 320 321 321 320 319 319 319 316 314 313 313 310 311 307 304
309 310 309 308 308 308 307 307 305 303 303 301 300 301 301 301 302 300 308 308 307 307 311 306 311 313 313 312 312 314 318 318 317 316 314 312 310 305 301 305 304 302 302 302
307 304 304 305 306 304 304 304 301 299 297 297 297 298 297 298 303 305 303 301 300 301 301 298 303 311 309 309 307 307 309 312 313 310 307 304 301 301 300 296 297 297 297 297
300 300 304 304 301 300 301 299 298 296 294 293 292 295 296 295 300 302 298 292 294 295 298 298 299 303 305 309 308 306 303 298 297 301 301 297 295 295 295 293 292 289 289 290
295 296 296 297 297 298 297 296 293 291 290 289 289 290 290 289 295 295 290 291 293 293 293 295 295 295 296 297 298 300 299 296 293 293 293 293 292 290 290 288 287 285 285 285
292 295 295 294 292 292 292 291 290 287 286 285 285 287 286 284 287 288 288 289 292 290 289 289 290 290 290 292 293 293 293 292 292 291 290 289 289 288 287 286 285 283 282 281
291 295 292 292 291 288 287 286 285 283 284 284 282 281 283 283 283 284 285 286 286 287 287 287 287 288 288 289 289 289 289 289 289 289 288 288 287 286 285 284 283 281 281 280
288 287 287 287 287 286 284 283 283 283 283 282 282 282 282 282 282 282 283 284 285 286 285 285 286 287 287 287 287 287 287 287 287 286 286 285 284 284 282 282 281 280 279 278
285 285 284 284 283 282 281 280 281 282 281 282 283 282 281 281 281 282 283 284 283 283 282 283 284 285 285 285 285 285 285 284 284 283 283 282 281 281 280 278 278 276 275 275
282 282 281 281 280 280 280 280 281 281 281 282 282 281 281 280 281 282 282 281 280 279 281 282 283 283 283 283 283 283 283 282 282 281 280 279 278 277 277 276 274 273 272 271
280 280 280 280 280 280 281 281 281 281 280 281 281 280 280 280 279 278 278 278 278 279 279 279 279 278 277 277 278 278 277 277 276 275 274 273 272 272 271 271 270 270 269 269
280 280 280 280 280 280 280 280 280 280 280 279 279 278 279 278 278 278 277 275 274 274 275 275 274 274 274 274 274 274 273 273 272 272 271 271 270 270 270 270 269 269 268 268
280 280 280 280 280 280 280 280 280 280 279 279 279 278 278 275 273 273 272 272 272 272 272 272 272 272 272 272 272 272 271 271 271 271 270 270 270 269 269 269 269 269 269 268
280 280 280 279 279 279 279 278 278 277 277 276 276 274 273 272 272 271 271 271 271 271 271 271 271 271 271 271 271 270 270 270 270 270 269 269 269 269 269 268 268 268 268 268
280 279 279 279 278 277 277 276 275 274 274 273 273 273 272 272 271 270 270 270 270 270 270 270 270 270 270 270 269 269 269 269 269 269 268 268 268 268 268 268 268 268 267 267
280 280 279 278 276 275 275 274 274 273 272 271 270 270 270 270 270 269 269 269 269 269 269 269 269 269 269 269 269 268 268 268 268 268 268 268 268 267 267 267 267 267 267 267
278 276 276 276 276 275 274 273 272 271 271 270 269 269 269 269 269 269 269 269 269 269 268 268 268 268 268 268 268 268 268 267 267 267 267 267 267 267 267 267 267 266 266 266

GFSNGP_850_thetae_075.txt.gz
Theta_e
318 317 316 318 319 319 320 320 321 322 322 321 321 321 320 320 320 319 319 320 320 321 322 323 327 329 329 329 329 329 328 326 325 324 324 324 323 323 322 322 322 322 322 322
316 315 315 315 316 317 317 317 318 318 319 320 319 319 317 317 319 320 320 320 320 320 321 322 322 326 328 329 328 328 328 327 327 327 326 325 324 323 322 322 321 322 321 322
315 312 314 316 315 315 316 317 317 318 320 318 318 317 318 318 319 320 320 320 320 320 320 320 321 322 323 327 328 328 328 328 328 327 327 326 325 324 323 322 321 320 320 320
315 315 315 313 313 314 315 316 316 316 317 317 317 317 317 318 320 319 319 319 319 320 320 320 320 319 320 322 326 328 328 327 327 327 326 327 326 325 324 323 322 322 322 321
315 314 313 312 312 312 313 313 315 315 316 316 316 316 317 319 318 318 318 318 319 319 321 322 321 319 318 319 322 326 328 327 327 326 326 326 326 325 325 324 323 323 323 322
313 313 312 311 314 315 314 315 315 315 315 315 314 317 318 316 317 316 317 318 318 320 321 322 323 323 323 320 320 323 326 327 327 326 326 326 325 325 324 324 324 323 322 321
313 313 312 313 313 314 315 316 313 313 314 314 316 315 314 314 316 316 317 317 318 319 317 317 317 316 322 323 322 321 322 325 326 326 326 325 325 325 325 324 323 323 322 322
312 314 313 311 313 314 316 315 314 314 313 313 313 313 314 315 315 316 316 315 314 313 314 316 318 317 318 323 322 323 322 323 325 326 326 326 326 326 325 324 323 321 322 322
311 312 313 314 314 313 313 313 313 312 312 312 312 313 314 315 316 314 312 311 310 310 314 314 313 313 312 316 318 320 321 322 324 325 325 325 325 325 325 323 322 321 320 321
313 314 313 313 311 312 312 311 311 310 310 310 309 310 312 312 314 310 308 306 305 310 313 314 309 310 308 309 314 316 317 320 321 322 323 323 323 322 322 321 320 318 316 314
310 310 310 310 311 310 310 310 309 308 308 307 306 307 307 309 306 305 303 300 303 306 306 313 307 308 309 308 308 311 310 309 311 315 316 319 315 313 310 313 311 311 312 305
310 311 312 311 308 308 308 307 306 305 304 303 303 302 303 303 299 298 297 296 300 302 305 305 304 300 309 309 307 308 307 304 301 302 303 306 307 302 301 302 302 303 303 299
308 306 306 307 306 302 302 301 302 303 300 298 297 295 295 295 295 292 292 293 297 297 299 301 300 301 300 303 303 302 307 306 304 295 298 297 297 299 299 294 293 293 294 294
302 301 306 303 302 299 298 299 299 298 295 292 292 291 290 292 291 290 288 289 291 294 296 297 297 296 294 296 296 296 299 299 300 299 293 291 292 291 291 291 289 287 287 288
298 298 299 298 297 296 296 295 294 292 289 288 288 288 287 287 287 286 285 284 286 288 292 291 291 291 292 293 295 294 294 291 291 292 292 290 290 289 287 288 287 285 285 285
294 298 296 296 295 293 292 291 291 288 286 285 284 283 283 283 283 283 286 284 284 284 285 287 287 287 288 289 290 290 289 288 287 287 287 286 287 287 285 284 283 282 282 281
293 295 293 293 292 290 288 287 286 284 283 282 282 282 283 283 284 284 282 283 284 284 284 286 286 287 288 288 289 288 288 287 287 287 286 285 284 284 283 283 282 281 280 280
289 289 288 289 289 288 286 284 283 282 281 282 283 283 283 283 282 281 281 282 283 284 283 284 285 286 287 287 287 287 287 287 286 285 284 283 282 281 281 281 280 279 278 278
287 286 286 286 285 284 283 282 281 280 280 281 282 282 281 281 281 281 282 282 282 281 280 281 283 284 284 284 284 283 283 283 282 282 281 281 280 278 278 277 277 276 275 275
284 283 283 282 281 280 280 279 279 279 279 280 280 280 279 278 278 279 280 280 277 276 278 280 280 280 279 280 279 279 278 278 277 277 276 276 275 275 275 274 274 273 272 272
281 280 280 280 279 279 279 279 280 279 279 280 281 280 279 279 278 277 276 275 274 274 275 275 276 275 275 274 275 275 274 274 274 274 274 273 273 272 272 272 272 271 271 270
280 280 279 279 279 278 278 279 279 278 278 278 277 277 277 276 276 274 273 272 272 272 273 273 273 273 273 273 272 272 272 272 272 271 271 271 271 271 270 270 269 269 269 268
280 280 279 279 279 279 279 279 279 278 278 277 277 276 274 273 273 273 272 271 271 272 272 272 271 272 272 271 271 270 270 270 270 269 269 269 269 268 268 268 268 267 268 268
280 279 279 278 278 278 277 276 276 276 276 275 275 274 275 274 272 271 270 271 271 271 271 271 271 271 271 270 269 269 269 269 268 268 268 268 267 267 268 268 267 266 267 268
279 279 279 279 278 277 277 276 276 275 274 273 273 272 271 271 271 270 270 270 270 269 270 270 270 270 269 269 269 268 268 269 269 267 267 267 267 267 266 267 268 268 268 268
278 278 278 277 277 277 277 277 276 275 274 273 272 271 270 270 269 269 269 269 269 269 268 269 269 268 268 268 268 268 267 267 267 267 267 266 266 266 267 268 268 268 268 268
277 277 277 276 275 275 275 275 275 274 273 272 271 271 270 269 269 269 268 268 268 268 267 267 268 269 268 268 267 267 266 266 267 267 267 266 266 266 267 267 267 267 267 267

GFSNGP_850_thetae_081.txt.gz
Theta_e
314 314 315 319 318 319 321 320 322 322 323 323 322 322 321 320 320 320 320 320 320 320 320 321 322 322 324 327 331 331 330 329 327 325 326 326 325 325 324 324 323 323 323 323
313 313 312 315 317 318 317 319 320 320 321 320 319 319 319 319 319 319 319 319 320 320 320 321 321 321 322 322 325 330 331 330 330 328 326 326 326 325 325 325 325 325 324 324
312 313 315 315 314 315 317 319 319 320 318 319 319 319 317 318 317 317 318 320 321 320 319 318 318 317 318 321 322 322 327 330 330 330 329 328 327 326 325 325 325 325 325 325
310 311 315 316 315 315 315 315 314 315 317 317 316 315 315 317 317 317 319 319 318 318 315 315 315 315 316 318 320 321 322 321 326 329 329 329 328 327 327 326 326 325 325 325
310 312 312 311 313 312 312 313 315 313 316 315 315 314 314 314 317 316 316 315 315 314 313 313 314 315 315 316 317 320 320 321 322 323 326 328 329 329 328 327 326 326 326 325
308 314 311 311 313 314 314 315 315 315 315 314 314 314 313 314 313 311 312 312 313 312 313 313 314 315 315 315 316 317 319 320 322 322 322 323 328 329 329 328 328 327 327 326
309 311 312 312 314 314 315 316 314 313 313 312 312 312 313 313 310 310 309 309 308 309 310 310 312 313 313 312 313 313 314 315 317 319 321 322 324 328 328 329 328 328 327 327
308 309 310 311 313 315 314 313 312 311 311 310 310 310 310 309 306 306 306 307 305 307 306 305 305 308 309 309 309 309 310 311 313 316 318 320 322 325 327 327 328 328 328 327
309 308 312 313 314 312 312 311 310 309 309 309 308 307 306 305 304 303 303 304 304 305 302 301 301 303 304 306 307 308 308 309 309 310 314 316 317 321 322 322 325 328 327 327
310 312 311 310 309 308 308 307 307 307 306 306 305 305 303 304 301 300 301 301 300 300 301 301 302 303 303 303 304 305 306 306 306 305 306 310 313 313 313 314 311 315 319 318
311 310 309 306 305 305 305 305 305 304 303 302 302 300 300 299 298 298 299 299 299 299 299 299 299 299 301 302 302 303 303 303 301 300 298 298 302 305 304 300 299 299 301 301
309 304 306 303 303 303 302 301 302 300 299 298 297 295 295 296 295 295 295 294 294 293 292 292 293 294 296 297 297 297 298 299 297 296 294 293 291 293 294 295 295 292 293 292
300 303 300 299 299 299 299 298 297 297 294 294 293 292 292 291 290 289 289 289 289 288 288 289 289 290 290 292 292 293 294 293 293 292 291 290 289 288 287 286 289 287 287 287
298 301 300 297 296 296 297 294 293 290 289 288 287 288 288 287 286 285 284 284 285 286 286 286 286 287 288 288 289 288 289 289 289 288 288 287 287 286 286 285 285 284 285 286
296 297 297 295 294 293 294 292 290 287 286 284 284 283 282 282 282 282 283 284 284 285 285 286 286 285 286 287 287 287 287 287 287 286 286 285 284 285 284 284 283 283 284 285
293 293 293 292 290 289 288 288 286 285 284 283 282 281 281 281 281 282 283 283 285 284 284 284 284 284 285 286 286 286 285 285 286 286 285 284 284 284 283 283 283 282 282 282
290 290 290 290 288 286 285 284 284 283 282 281 280 280 280 281 281 281 281 282 282 282 282 283 283 284 284 285 285 285 285 284 284 284 283 283 283 283 282 282 281 280 280 280
288 287 287 288 286 284 283 282 282 281 281 281 281 281 281 281 280 280 280 280 281 282 282 281 281 282 283 283 283 283 283 283 282 282 281 281 280 280 279 279 278 278 277 278
285 284 284 284 284 283 282 281 280 280 280 280 281 280 280 280 280 280 280 280 280 279 278 278 278 280 281 281 282 281 281 281 280 279 278 278 278 277 276 276 275 275 275 274
282 281 282 281 281 281 280 280 280 279 279 280 280 279 279 278 278 279 279 279 276 274 274 275 276 276 276 276 277 277 277 278 277 276 276 276 275 275 274 273 273 272 272 271
280 280 280 279 279 279 279 279 279 279 278 279 279 279 278 277 277 277 276 275 273 273 273 274 274 274 274 274 274 274 274 274 274 274 273 273 273 272 272 271 271 271 270 270
280 279 279 279 279 278 278 279 279 278 278 278 277 277 277 276 275 274 273 273 272 272 272 273 273 272 273 273 273 272 272 272 272 272 271 271 271 271 270 270 270 269 270 269
280 279 279 279 279 279 278 279 278 278 278 278 277 276 275 274 273 273 273 272 271 271 272 271 271 272 272 272 271 271 272 271 270 270 270 270 270 269 269 270 270 269 269 269
279 279 279 279 278 278 278 278 278 277 276 275 275 275 274 274 273 272 271 271 271 270 270 271 271 271 271 271 271 270 270 270 270 270 269 269 269 269 269 269 268 268 268 269
280 280 279 279 279 278 278 277 276 276 275 274 274 273 272 272 272 270 270 270 270 270 270 269 270 270 271 270 270 270 270 269 269 269 269 269 269 269 269 269 269 269 269 269
280 280 280 279 279 278 278 277 276 276 275 274 273 272 271 270 270 270 270 269 269 269 269 269 269 269 269 269 269 268 268 269 268 268 267 267 267 267 268 268 267 267 267 267
279 278 278 277 277 277 277 277 276 275 274 273 272 271 270 270 270 269 269 269 269 268 268 268 268 268 268 268 267 267 267 267 267 267 267 267 267 267 267 267 267 266 266 267

GFSNGP_850_thetae_084.txt.gz
Theta_e
313 314 313 314 316 317 318 320 323 320 321 321 321 320 320 319 319 319 321 321 320 318 317 317 318 321 322 325 327 328 327 327 326 327 326 325 325 325 324 323 321 322 321 322
310 311 311 313 312 319 317 317 318 319 318 319 320 319 319 319 319 320 320 318 315 314 314 315 315 317 319 320 322 323 328 327 325 325 325 325 326 326 325 325 324 323 323 322
311 311 311 313 314 316 317 317 316 320 318 319 320 318 319 318 319 319 317 316 314 313 313 314 314 315 316 317 319 321 323 326 327 327 327 326 325 326 326 326 325 325 325 324
310 309 311 311 309 311 316 316 317 318 318 319 316 315 314 317 317 315 313 312 312 312 313 313 314 314 314 315 315 317 318 319 321 323 325 326 326 325 325 326 326 326 326 325
308 310 309 307 309 313 312 316 314 316 317 316 315 314 312 312 312 310 309 309 309 311 312 312 313 313 313 313 314 314 315 315 316 318 319 320 322 324 326 325 326 326 326 326
305 310 309 309 311 312 313 317 313 314 315 313 314 315 311 307 307 306 305 305 307 309 310 311 311 312 312 312 311 311 311 310 311 313 315 317 319 320 321 325 325 325 326 327
306 306 308 309 313 313 315 315 311 311 311 312 311 310 305 305 304 304 304 306 307 308 308 308 308 309 311 310 310 308 309 309 310 310 311 313 315 317 318 321 324 325 324 325
306 307 308 311 313 314 312 309 309 309 308 308 306 304 303 303 302 303 302 303 303 304 304 304 304 305 305 308 308 308 308 308 308 308 308 309 311 312 315 317 320 323 324 323
307 306 309 310 311 310 309 308 307 307 306 306 305 302 300 298 298 298 298 300 299 299 299 300 301 302 303 303 304 306 306 306 305 305 305 305 306 308 310 312 314 317 318 315
310 309 308 307 306 305 305 305 304 305 305 304 301 299 298 297 298 298 299 298 298 298 298 298 299 299 300 301 302 302 303 302 301 301 301 301 301 301 302 303 301 304 305 304
309 307 306 304 302 302 301 303 304 302 301 300 299 298 298 298 296 296 295 295 295 295 294 293 294 295 295 296 297 298 298 298 298 297 296 295 295 294 294 293 296 295 295 297
305 300 303 299 300 301 301 300 298 298 297 297 296 294 294 293 292 291 291 291 292 291 291 290 292 293 292 293 294 295 296 295 294 293 291 290 289 288 290 289 289 289 288 289
300 299 298 297 297 297 296 295 295 295 293 294 292 292 291 289 288 287 288 288 288 288 288 289 289 290 290 291 292 292 291 290 290 290 289 289 287 287 287 286 288 286 285 285
299 300 296 296 293 294 295 293 293 290 289 290 288 287 287 287 286 286 286 286 286 287 287 287 287 287 287 288 289 289 289 289 289 287 286 287 287 286 286 286 286 286 285 285
294 294 294 293 293 292 291 290 289 287 285 284 283 283 284 284 284 284 284 284 285 285 286 286 286 285 286 287 288 288 287 287 287 287 286 285 285 285 285 285 284 284 284 285
292 292 292 291 290 289 288 287 287 284 284 283 282 282 283 283 283 283 283 283 285 285 284 285 285 284 285 285 286 286 286 286 285 285 285 285 284 284 284 283 284 283 283 282
289 289 289 288 287 286 285 284 284 283 282 281 281 281 281 282 282 282 282 282 282 282 283 283 283 284 284 284 285 285 285 284 284 284 284 283 283 283 282 282 282 281 280 280
286 286 287 286 284 283 281 281 281 281 281 280 280 281 281 281 281 280 280 281 281 282 282 282 281 282 283 283 283 283 283 283 283 283 281 281 281 280 280 280 280 279 278 278
284 283 282 283 283 282 281 280 280 280 280 280 280 280 280 280 279 279 279 280 281 280 279 278 278 279 280 280 281 281 281 280 280 280 280 279 279 278 278 277 277 276 275 275
281 281 281 281 281 280 280 279 279 279 279 279 279 279 279 278 278 278 279 279 277 276 275 275 276 276 276 276 276 277 277 278 277 277 277 277 276 275 275 274 273 273 273 272
280 280 280 280 279 279 279 279 279 279 278 278 278 278 277 277 277 275 274 274 273 273 274 274 274 274 274 274 274 274 274 274 274 274 273 273 273 272 272 272 272 272 272 271
279 279 279 279 279 278 278 278 278 278 278 278 277 277 277 275 274 273 273 273 272 272 272 273 273 273 273 273 273 273 273 272 272 272 272 271 271 271 271 270 270 270 270 270
279 279 279 279 279 278 278 278 278 277 277 277 276 275 274 273 273 272 273 271 271 271 271 272 271 271 271 271 271 271 271 271 271 271 270 270 270 270 269 269 269 269 269 269
280 279 279 279 279 278 278 277 277 276 275 275 275 274 274 273 272 271 271 271 270 270 270 270 270 271 271 270 270 270 269 269 269 269 269 269 269 269 268 268 268 268 268 268
280 279 279 279 278 278 277 277 276 275 275 274 273 272 272 271 271 270 270 270 270 270 269 269 269 269 269 270 270 269 269 269 268 268 268 268 268 268 268 267 267 267 268 268
279 279 279 279 278 278 278 276 276 275 275 274 273 272 271 270 270 270 269 269 269 269 269 269 269 269 268 268 269 268 268 268 268 268 267 267 267 267 267 267 267 267 267 267
279 278 278 278 278 277 277 277 276 275 274 273 272 271 270 270 270 269 269 269 268 268 268 268 268 268 268 268 267 267 267 267 267 267 266 267 267 266 266 266 266 266 266 266

GFSNGP_850_thetae_087.txt.gz
Theta_e
310 311 312 313 314 314 316 317 320 319 320 320 320 319 318 318 319 318 314 313 312 314 316 319 321 322 323 325 326 326 326 325 325 325 325 325 324 323 323 322 322 321 321 320
309 309 309 310 310 312 315 317 318 317 319 316 318 320 319 318 320 316 313 311 310 311 314 314 316 317 319 321 323 325 325 323 323 324 324 325 324 324 324 325 324 324 323 322
310 308 308 310 310 308 317 316 316 318 318 318 319 317 317 318 318 313 310 308 309 308 311 312 313 314 314 316 318 320 322 322 322 322 324 324 325 324 325 325 325 325 325 324
309 308 309 308 307 308 311 317 315 315 316 318 316 315 316 317 313 308 306 310 310 310 310 310 312 312 312 313 313 314 315 317 318 320 321 322 323 323 324 323 323 324 325 325
307 308 307 306 306 310 312 312 314 313 315 315 312 311 308 307 308 305 307 306 308 309 309 309 311 311 311 311 311 311 311 311 311 312 314 315 318 319 320 321 323 323 323 323
304 308 305 306 309 311 312 313 311 314 315 314 314 314 307 302 302 303 304 304 306 307 307 307 308 309 309 310 310 310 309 310 310 310 310 311 312 313 315 317 319 320 321 323
307 308 306 307 310 311 313 312 310 310 310 312 308 307 301 301 302 302 302 301 302 303 303 304 305 306 307 308 309 307 307 306 306 307 307 308 309 310 311 313 313 315 317 320
306 308 308 310 311 311 309 308 308 308 306 303 301 300 299 298 298 299 300 299 299 300 300 301 301 302 303 304 304 305 305 305 305 305 305 305 305 306 307 308 311 312 314 315
307 306 308 307 307 307 307 307 306 305 304 302 300 298 296 296 298 296 295 296 297 297 297 298 299 299 300 301 302 302 303 303 303 303 303 303 304 303 304 304 304 305 306 306
308 309 307 305 303 303 303 300 300 300 301 302 300 299 297 295 295 298 294 295 295 294 295 296 296 297 297 298 299 298 299 299 300 299 299 298 299 299 299 299 298 298 298 298
306 304 302 301 301 300 301 300 300 298 296 295 297 295 294 292 290 290 290 292 292 293 292 292 292 293 294 295 295 295 295 294 293 293 294 293 292 291 290 288 291 291 290 291
304 299 299 296 298 299 301 300 298 295 295 294 295 292 291 289 286 286 287 288 289 289 288 288 289 289 290 291 292 292 292 292 291 290 290 289 288 287 287 287 287 287 287 287
299 297 296 295 295 297 297 295 294 293 292 290 289 289 288 286 285 285 287 287 287 286 286 287 287 288 288 288 289 289 290 289 289 288 289 289 288 287 286 285 286 286 286 286
296 297 296 295 292 292 293 292 292 292 289 288 286 286 286 285 285 286 285 285 285 285 286 286 286 287 286 287 288 288 288 287 288 287 287 287 287 286 286 287 287 286 286 286
293 293 293 292 292 291 291 290 290 288 286 285 285 284 283 284 284 283 283 283 284 285 285 285 285 285 285 286 287 287 287 286 286 286 286 286 286 286 285 285 285 285 285 285
291 291 291 291 290 289 288 287 286 284 284 283 282 283 283 282 282 282 282 283 285 285 284 284 285 284 284 285 285 286 285 285 285 285 284 284 284 285 284 284 284 284 284 283
289 289 288 288 288 287 286 284 284 283 282 282 281 281 281 281 282 282 282 282 282 282 282 283 283 283 283 284 284 284 284 284 283 284 283 283 283 283 283 283 282 282 281 280
285 286 286 286 285 284 283 282 282 281 281 280 280 280 280 280 281 280 280 280 280 281 281 281 280 281 282 282 282 282 283 283 283 283 282 281 281 281 280 280 279 279 278 277
282 282 282 283 283 282 282 281 281 281 280 280 280 280 280 280 280 280 280 280 281 280 279 277 277 277 278 279 279 280 280 280 280 280 280 279 279 278 277 277 275 275 274 273
280 280 280 281 281 280 280 279 280 280 279 279 279 279 279 279 278 279 279 278 277 276 275 275 275 276 276 276 276 276 276 277 277 277 277 276 275 275 274 273 273 272 272 272
280 280 280 280 279 279 279 278 279 278 278 278 278 278 278 278 276 275 274 274 274 273 273 274 274 274 274 274 274 274 274 274 274 274 273 273 273 273 272 272 271 271 271 270
280 280 280 279 279 279 278 278 278 278 278 278 278 277 276 275 274 273 273 273 273 272 272 273 273 273 273 273 273 273 273 273 272 272 272 272 271 271 271 270 270 270 270 270
280 279 279 279 279 279 278 278 278 278 277 277 276 276 275 274 273 272 272 272 271 271 271 272 272 272 272 271 272 271 271 271 271 271 270 270 270 270 270 270 270 270 269 269
280 279 279 279 278 278 278 277 277 276 275 275 274 274 273 273 272 271 271 271 270 270 270 270 270 270 270 270 270 270 270 270 270 270 269 269 269 269 269 269 269 269 269 269
279 279 278 278 278 278 277 277 277 276 275 275 274 273 272 271 271 270 270 270 269 269 269 269 269 269 269 269 269 269 269 269 269 269 268 268 268 268 268 268 268 268 268 268
279 279 278 278 278 278 277 277 276 276 275 274 273 272 271 270 270 270 269 269 269 268 268 269 269 269 268 268 269 269 269 268 268 268 268 268 268 267 267 267 267 267 267 267
279 278 278 278 277 277 276 276 276 275 274 274 273 272 271 270 269 269 269 268 268 268 268 268 268 268 267 267 267 268 268 268 268 267 267 267 267 267 267 266 266 266 266 266

GFSNGP_850_thetae_090.txt.gz
Theta_e
309 309 311 311 311 312 315 315 316 314 316 316 316 318 318 317 314 311 309 307 307 308 312 314 317 320 322 323 325 325 325 325 325 325 325 325 324 323 322 322 321 321 320 320
309 308 307 308 308 308 309 311 314 315 316 316 316 317 318 318 314 311 308 306 307 308 310 311 314 314 318 320 322 324 324 323 323 323 323 323 324 324 324 324 324 324 323 322
308 308 307 307 307 306 305 314 315 316 316 317 316 317 317 314 311 308 307 304 305 307 309 311 312 310 313 314 320 320 321 321 322 322 323 323 323 322 322 321 323 323 324 324
308 307 306 306 304 305 309 310 314 314 313 317 312 309 309 310 307 303 302 304 307 307 307 309 308 305 306 309 311 312 315 316 318 320 321 321 321 321 321 322 322 322 321 321
306 308 305 305 307 310 309 308 310 312 313 315 309 307 304 302 305 304 302 302 303 307 307 307 308 307 308 309 308 309 310 310 310 310 310 312 314 317 319 320 321 321 321 322
304 307 304 304 307 309 309 305 309 310 313 313 313 314 305 301 301 304 302 301 302 303 303 306 305 304 304 306 306 307 307 306 306 307 308 309 309 310 310 311 313 315 316 317
306 306 306 305 309 309 308 307 307 306 310 310 306 305 299 297 298 301 299 301 299 300 302 301 301 301 302 301 303 302 303 304 305 305 306 306 306 306 307 308 308 309 309 311
306 307 306 307 309 308 308 306 306 304 302 300 298 296 296 296 297 298 298 298 299 299 299 299 300 301 301 300 298 299 300 301 302 303 303 303 303 304 304 305 305 305 303 305
306 306 306 304 303 303 303 302 303 302 300 300 297 296 297 298 295 294 296 295 295 295 295 296 297 299 298 297 297 298 299 300 301 301 300 299 300 301 301 301 301 300 300 299
305 303 304 302 300 298 299 297 299 300 299 297 295 293 292 292 291 293 292 292 293 293 293 293 294 294 295 295 295 295 297 298 298 298 297 296 297 296 297 297 296 296 295 294
305 302 300 298 297 296 295 296 298 297 296 295 295 292 291 289 289 289 290 291 290 289 289 290 291 292 292 293 293 293 294 294 294 294 293 293 293 292 292 290 290 290 289 289
302 297 298 295 294 294 293 292 293 295 295 294 293 291 290 290 288 289 290 288 287 287 286 286 288 289 290 290 291 291 291 291 290 289 289 289 288 288 287 287 287 287 287 288
297 296 295 294 292 291 293 291 291 291 290 289 289 289 288 288 287 287 288 287 287 286 286 286 287 288 288 288 288 289 289 288 288 287 287 287 287 287 287 287 287 288 288 288
294 295 296 293 291 291 291 290 290 289 288 288 287 287 287 286 284 285 284 284 285 285 286 286 286 287 287 287 287 288 288 287 287 286 286 286 286 286 286 286 287 286 286 286
292 292 291 290 290 289 288 288 287 285 283 283 284 284 283 284 283 283 283 283 283 284 284 285 285 285 285 285 285 286 286 285 285 285 285 285 285 285 285 285 285 284 283 284
290 290 290 289 288 287 286 285 284 281 282 281 282 282 282 282 282 282 282 282 283 283 283 283 283 283 283 283 283 284 284 283 284 284 284 284 284 284 284 283 283 283 283 282
288 289 286 287 286 285 284 283 283 282 281 281 281 280 280 281 281 281 281 281 281 282 282 282 282 281 282 282 282 283 283 283 282 282 282 282 282 282 281 281 281 281 281 280
285 285 285 285 285 284 282 280 281 281 280 280 280 280 280 280 280 279 279 279 279 279 279 277 277 278 279 280 280 281 281 281 281 281 280 280 280 280 279 279 278 277 276 275
283 282 282 283 283 282 281 280 280 280 279 279 279 279 279 279 279 278 278 278 278 278 277 275 275 275 276 276 277 277 278 278 279 279 278 278 277 277 275 274 274 274 273 273
283 283 283 282 282 281 281 280 279 279 279 279 279 279 279 278 278 277 275 275 275 274 274 274 274 275 275 275 275 275 275 275 275 275 275 274 274 273 273 273 272 272 272 272
280 280 280 280 280 279 279 279 279 279 279 279 279 279 278 278 275 274 274 274 274 273 273 273 274 274 274 274 274 274 274 274 273 273 273 272 272 272 271 271 271 271 271 271
279 279 279 279 279 279 279 279 278 278 278 278 278 276 276 275 274 274 273 273 273 272 272 272 273 273 273 272 273 272 272 272 272 272 271 271 271 271 271 270 270 270 270 270
279 279 279 279 279 279 278 278 278 277 277 276 276 275 275 274 274 272 272 271 271 271 271 271 271 271 271 271 271 271 271 271 271 270 270 270 270 270 270 269 269 269 269 269
279 279 279 278 278 278 278 277 277 276 276 275 275 274 273 272 272 271 271 271 270 270 270 270 270 270 270 270 271 270 270 270 270 270 269 269 269 269 269 269 269 269 269 268
279 279 278 278 278 278 278 277 277 276 276 275 274 274 273 272 271 270 270 270 269 269 269 269 269 269 269 269 269 269 269 269 269 269 269 269 269 269 269 268 268 268 268 268
279 279 278 278 278 278 277 277 276 276 275 275 274 273 272 271 270 269 269 269 269 268 268 268 268 268 268 268 268 268 268 268 268 268 268 268 268 268 268 268 268 267 267 267
279 278 278 277 277 277 276 275 275 275 275 274 273 272 271 270 269 269 269 268 268 268 268 268 267 267 267 268 267 268 268 267 267 267 267 267 267 267 267 266 266 266 266 266

GFSNGP_850_thetae_093.txt.gz
Theta_e
309 310 311 311 310 310 313 313 314 312 312 313 315 317 318 315 311 309 307 304 302 303 305 313 315 318 320 321 322 323 323 323 324 324 324 323 322 321 321 321 320 320 320 320
308 308 308 308 307 308 309 310 311 312 314 314 315 314 317 313 310 307 304 302 303 299 303 304 307 311 314 318 321 322 323 323 323 323 322 322 322 323 323 322 322 322 322 321
307 308 306 305 307 305 306 307 313 314 314 316 312 310 312 310 307 303 300 301 301 302 302 302 304 306 311 314 316 318 318 317 321 323 322 322 322 322 323 322 322 321 321 321
307 308 305 305 306 306 308 308 312 313 315 316 311 306 304 303 304 303 303 303 301 306 306 304 304 304 306 309 314 315 314 309 317 319 319 320 320 320 321 321 321 321 321 320
307 306 305 305 309 308 308 307 310 311 313 313 308 305 300 299 299 301 300 300 300 302 303 306 307 306 307 307 310 308 308 307 306 308 310 313 316 318 318 318 318 318 318 319
307 305 305 305 307 309 309 306 307 308 315 313 311 314 302 297 298 297 298 298 300 300 302 303 304 304 305 305 305 304 303 304 302 305 306 307 308 308 309 310 311 312 311 313
305 305 306 307 308 307 307 308 305 305 304 306 302 300 295 296 294 296 295 296 296 299 301 300 300 300 300 301 302 302 301 301 302 304 304 305 304 304 305 305 305 305 306 306
305 306 306 305 308 309 308 305 304 302 299 297 296 295 293 295 295 294 296 295 295 296 296 296 296 296 296 298 296 297 299 300 300 301 301 301 302 302 302 302 301 301 299 300
307 308 302 301 301 298 300 299 299 298 297 297 296 295 296 295 292 293 293 293 295 295 294 294 294 294 293 291 292 294 296 297 298 297 297 297 298 298 298 298 298 298 297 296
305 303 299 297 297 295 295 294 294 295 296 296 295 294 293 292 292 289 289 289 290 292 291 291 292 293 293 292 292 293 293 293 293 293 293 294 295 295 295 295 294 293 292 292
304 300 298 295 294 294 294 293 293 293 292 292 293 290 289 287 285 286 288 288 288 288 289 290 290 291 292 292 292 292 291 291 291 291 290 291 292 290 290 289 289 290 289 290
301 296 296 293 292 293 293 292 291 289 289 288 288 287 286 284 286 285 285 287 288 288 288 288 288 289 290 290 291 291 290 290 290 290 289 289 289 289 289 289 289 288 288 288
296 295 293 292 290 290 290 289 289 289 286 286 285 286 286 284 283 284 286 287 287 287 287 287 287 288 289 289 289 290 290 289 289 289 288 288 288 288 288 287 287 288 288 287
293 294 293 291 289 288 288 288 287 286 285 285 285 285 285 284 283 284 284 283 284 285 285 285 286 287 287 287 287 288 288 287 287 287 287 287 287 287 287 287 287 287 286 286
291 291 290 289 289 287 286 286 286 284 283 283 284 284 283 284 283 283 282 282 282 283 284 284 284 284 284 285 285 286 286 286 286 286 286 285 285 285 285 285 285 285 285 285
289 288 288 287 286 286 285 284 283 282 283 282 282 282 282 282 282 282 282 282 283 284 283 283 284 283 283 283 283 284 284 284 284 284 284 284 284 284 284 284 284 283 283 283
289 288 286 285 283 282 282 282 282 281 281 281 281 280 280 281 281 281 281 281 281 281 281 282 282 282 282 283 282 282 282 282 282 282 282 282 282 281 281 281 281 281 280 279
284 283 283 284 282 281 280 280 281 280 280 280 280 280 280 280 280 280 280 280 279 279 279 278 277 277 278 279 279 280 280 281 281 280 280 280 279 279 278 277 276 275 274 274
282 281 281 281 282 281 281 280 280 280 279 279 279 280 279 279 279 279 279 279 279 278 277 276 276 276 276 276 276 277 277 278 278 278 278 277 276 275 274 274 273 273 272 272
281 281 281 280 280 280 280 280 279 279 279 278 279 278 278 278 277 276 275 275 275 275 274 275 275 275 275 275 275 275 275 275 275 275 274 274 273 273 272 272 272 272 271 271
281 280 280 280 280 280 279 279 278 278 278 278 277 277 275 274 274 273 273 273 273 273 273 273 273 273 273 273 273 273 273 273 273 273 272 272 272 272 271 271 271 271 271 270
281 282 281 281 280 280 279 278 278 278 278 277 276 275 275 274 273 273 272 272 272 271 271 271 272 272 272 272 272 272 272 272 271 271 271 271 271 270 270 270 270 270 269 269
280 280 279 279 279 279 279 278 278 277 276 276 275 275 274 273 273 272 271 271 271 270 270 271 271 271 271 271 271 271 270 270 270 270 270 269 269 269 269 269 269 269 269 269
280 279 279 279 278 278 278 278 277 277 276 276 275 274 274 273 272 271 271 270 270 270 269 269 269 269 269 270 270 270 270 269 269 269 269 269 268 268 268 268 268 268 268 268
279 279 278 278 278 277 277 277 277 276 276 275 274 274 273 272 271 270 270 269 269 269 269 268 268 268 269 269 268 268 268 268 268 268 268 268 268 268 268 268 267 267 267 267
279 278 278 277 277 277 277 276 276 275 275 274 274 273 272 271 270 269 269 269 268 268 268 268 268 268 268 268 268 268 268 268 268 267 267 267 267 267 267 267 267 267 266 266
278 278 277 277 276 276 276 275 275 274 274 273 273 272 271 270 269 269 269 268 268 268 268 268 267 267 267 267 267 267 267 267 267 267 267 267 267 267 267 267 267 266 266 266

GFSNGP_850_thetae_096.txt.gz
Theta_e
312 312 312 311 310 311 312 312 314 313 313 315 318 318 318 311 308 306 305 302 302 299 298 301 307 316 321 321 321 322 323 322 322 323 324 324 322 322 321 320 320 320 320 320
310 309 308 308 307 308 309 310 311 312 314 317 316 311 308 307 305 303 299 300 303 301 298 298 300 304 312 320 320 321 321 321 321 321 322 322 322 322 322 321 321 321 320 320
310 308 306 307 308 308 309 311 311 313 314 315 315 309 306 304 302 300 299 299 299 300 301 296 297 301 306 310 311 314 316 318 319 320 320 322 322 322 322 322 322 322 321 321
307 306 305 308 308 309 310 311 312 313 315 316 310 303 300 300 300 299 297 298 300 300 298 301 301 302 304 305 308 307 307 311 312 316 315 318 319 320 320 320 320 320 321 321
306 306 306 310 310 309 309 310 310 312 313 310 306 304 298 296 295 296 297 297 296 299 300 300 303 298 303 305 304 303 305 306 308 311 312 307 314 314 314 315 316 316 317 317
307 305 307 310 309 309 310 310 306 307 309 312 308 315 301 293 294 295 297 296 294 294 300 303 302 304 304 305 306 305 304 305 305 305 307 307 307 312 310 311 311 311 312 311
307 307 308 308 309 308 310 311 305 303 300 299 298 296 293 293 293 292 292 294 293 292 295 298 300 301 303 302 303 302 302 303 304 304 305 304 301 302 302 303 303 304 305 305
308 308 309 302 307 309 303 302 302 300 298 296 294 294 294 294 295 292 290 292 290 290 292 292 295 296 298 298 296 297 300 300 300 300 300 298 298 297 298 300 300 299 299 298
306 305 300 297 297 296 297 296 297 297 296 295 293 292 292 292 290 291 290 288 288 288 288 291 292 292 292 293 294 295 296 296 296 296 297 295 295 296 296 296 296 296 295 294
307 301 298 296 295 294 294 293 294 294 294 293 292 291 290 288 290 289 288 287 287 287 286 286 287 290 290 290 291 293 294 293 293 293 293 294 294 291 292 292 291 290 290 291
304 301 299 296 294 293 292 292 291 291 291 292 292 290 290 288 287 287 286 286 286 285 285 285 287 288 289 287 286 288 290 290 291 291 291 291 292 291 289 290 289 288 289 289
302 297 297 294 291 291 290 289 290 291 290 289 289 288 287 286 285 285 285 284 284 284 284 285 286 288 289 289 287 285 285 285 285 284 284 285 287 288 288 288 289 289 289 288
296 295 294 292 291 290 289 289 288 288 287 287 286 286 285 284 283 283 283 284 283 283 284 285 287 287 287 288 288 288 287 285 285 284 283 284 284 283 286 286 286 287 288 288
294 294 293 293 291 290 288 287 286 285 285 284 283 283 282 281 281 281 281 283 284 285 286 286 286 286 286 286 286 287 286 286 286 286 286 286 286 286 285 284 285 285 285 286
292 292 292 290 289 288 287 287 286 285 284 283 282 281 280 280 281 282 282 282 283 284 284 285 285 285 285 285 285 286 286 286 286 285 285 285 285 284 284 283 283 282 281 283
291 290 289 288 287 286 286 285 285 283 282 280 280 279 280 281 282 282 282 283 283 283 283 283 283 283 283 284 284 284 284 284 284 284 284 284 284 283 283 282 282 282 283 283
291 290 289 287 286 284 283 282 281 280 279 278 279 280 280 280 280 280 280 280 280 280 280 279 280 280 281 281 282 282 282 282 282 282 282 281 281 280 280 280 280 279 279 279
286 285 285 285 285 284 282 281 280 279 278 279 280 279 280 279 279 279 279 279 278 278 278 277 277 277 277 278 278 278 278 278 279 279 279 280 279 279 278 277 276 275 275 274
284 283 282 282 282 281 280 279 279 279 279 279 279 279 279 279 279 278 277 276 276 275 275 275 275 275 276 276 276 276 276 276 276 276 277 276 275 274 274 274 274 273 273 273
281 280 280 280 280 280 280 280 279 279 279 279 279 279 278 278 276 275 275 275 275 274 274 274 274 274 274 274 275 275 274 274 274 274 274 273 273 272 273 273 272 272 272 272
281 280 280 280 280 279 279 278 278 278 278 278 277 276 276 275 275 275 274 274 274 273 273 273 273 273 273 273 273 273 273 273 273 272 272 272 271 271 271 271 271 271 270 270
280 280 279 279 279 278 278 278 278 278 278 277 276 275 275 275 274 274 273 273 272 272 272 272 272 272 272 272 272 272 272 272 271 271 271 271 270 270 270 269 269 269 269 269
280 279 279 279 279 279 279 278 278 277 276 276 275 275 274 274 273 273 273 271 270 271 270 270 271 271 271 271 271 271 271 270 270 270 270 270 269 269 268 268 268 268 268 268
280 280 280 280 279 278 277 278 277 277 277 276 276 275 274 273 272 271 271 271 270 270 270 270 270 270 270 270 270 270 269 269 269 269 269 269 269 269 269 269 268 268 268 268
280 280 279 279 278 278 278 277 277 276 276 274 274 274 274 273 272 271 269 269 269 269 268 269 269 269 268 268 269 269 269 268 269 268 268 268 268 268 268 268 268 267 268 268
279 278 278 278 277 277 277 276 276 276 275 275 273 272 272 272 270 269 269 269 268 268 268 267 268 268 267 267 267 268 268 267 268 267 268 267 267 267 267 267 267 267 267 267
278 278 277 277 276 276 275 275 275 276 275 274 274 272 271 270 270 269 269 268 268 268 267 267 267 267 267 267 267 266 267 267 267 267 267 266 266 266 266 267 266 266 266 266

GFSNGP_850_thetae_099.txt.gz
Theta_e
315 314 314 315 316 316 316 315 315 315 315 320 317 313 309 307 305 303 302 300 299 299 303 300 299 303 309 318 323 324 324 324 323 322 321 321 323 324 323 323 325 324 323 323
311 313 312 311 310 310 310 311 312 313 318 318 314 311 307 305 302 300 298 297 299 299 300 303 298 299 301 305 314 320 322 322 322 321 320 321 323 323 321 320 321 321 321 321
310 308 309 310 310 309 311 312 313 316 317 317 312 307 304 302 299 298 297 296 298 298 298 300 301 299 300 300 303 309 315 317 318 320 321 321 323 323 323 321 320 320 321 319
309 308 310 310 311 311 312 312 311 312 312 314 306 298 297 296 296 295 295 295 298 299 299 299 300 301 301 301 301 302 304 306 308 310 314 319 321 322 322 322 321 321 321 321
308 310 310 310 310 311 312 312 309 310 311 308 302 300 296 294 295 294 294 295 295 298 300 300 300 300 300 301 301 303 303 301 301 302 304 306 308 308 312 314 313 315 316 316
309 307 310 312 309 309 311 313 308 308 307 306 305 312 298 293 294 294 294 294 293 293 298 300 300 300 300 300 301 302 301 300 300 300 301 301 300 303 304 309 302 306 308 308
309 309 311 305 306 307 312 309 305 303 301 298 298 296 293 292 292 293 293 293 292 291 292 294 296 298 300 300 300 299 300 300 300 300 298 299 300 302 302 305 305 301 300 304
311 309 311 300 307 308 301 299 301 300 299 297 295 293 292 291 291 291 291 292 292 291 289 291 293 296 294 294 293 297 298 296 296 300 298 298 301 303 301 300 300 302 302 299
306 305 300 298 298 296 297 297 297 297 298 297 294 292 291 291 290 290 291 291 291 291 289 288 289 290 290 290 291 291 293 293 295 294 297 298 296 296 298 297 296 293 295 292
305 301 299 298 297 296 296 294 295 296 296 296 294 292 291 291 291 291 290 290 290 290 289 288 287 286 288 288 288 290 290 289 292 294 292 292 292 293 293 291 292 291 290 291
302 300 299 297 295 295 295 295 295 295 294 295 295 293 293 292 291 290 289 289 289 288 287 286 285 284 285 287 288 288 287 286 286 287 288 289 290 287 288 288 288 289 290 290
303 298 298 295 293 292 292 292 293 293 293 292 292 292 291 289 288 288 287 287 287 286 285 284 284 286 287 286 286 287 286 286 285 285 285 285 287 287 287 288 288 288 288 288
297 295 295 293 292 292 292 292 291 291 291 290 289 289 288 287 286 285 285 285 284 283 283 282 285 287 287 287 287 287 285 285 284 284 284 284 284 284 285 285 286 287 288 288
296 296 296 295 294 292 292 290 289 288 288 287 286 285 284 283 283 282 281 281 281 281 281 283 285 286 285 286 286 284 285 285 284 283 283 284 283 283 283 282 283 284 285 286
295 295 294 293 292 291 291 290 290 288 287 285 285 284 283 282 280 280 280 281 281 280 281 282 284 284 284 284 284 285 285 284 283 284 284 283 282 282 281 281 280 279 279 282
293 293 292 291 290 289 289 288 288 286 284 283 282 281 280 279 279 279 281 282 281 280 281 282 282 282 283 283 281 281 282 283 281 281 281 281 281 281 280 280 279 278 280 281
293 292 291 289 288 287 286 285 284 283 281 280 279 279 279 279 279 281 281 281 281 280 280 280 279 279 279 280 280 279 280 280 280 280 280 280 280 279 279 278 277 276 276 276
289 288 288 288 287 286 284 283 282 281 280 278 280 280 280 280 279 280 280 280 280 280 279 278 277 277 277 277 278 279 279 279 278 278 278 277 278 277 277 277 276 275 274 274
287 286 285 285 285 284 283 281 280 279 280 280 280 280 279 279 279 278 277 277 276 276 276 276 276 276 276 276 277 278 278 277 278 277 277 276 276 276 276 275 275 274 273 273
284 283 282 281 281 280 280 280 279 280 280 280 279 279 277 276 275 275 275 276 275 274 274 274 274 274 274 274 275 276 276 276 276 275 275 275 275 274 274 273 273 273 272 272
280 281 281 281 281 280 280 280 280 279 279 278 277 276 276 276 275 275 276 278 275 273 273 273 273 273 273 273 275 274 274 274 274 274 274 274 274 273 273 272 272 272 271 271
280 281 280 280 280 280 279 279 278 278 277 276 276 276 276 276 276 276 275 274 274 272 273 272 271 272 272 273 273 273 273 273 273 273 272 272 272 272 271 271 271 270 270 269
279 279 279 278 278 277 277 278 278 277 277 277 276 275 275 275 275 275 276 274 273 271 272 271 271 271 271 271 271 271 271 271 271 271 270 270 270 270 270 270 269 269 269 268
279 279 278 278 277 278 279 277 277 276 276 276 276 275 275 276 276 274 273 272 271 270 270 270 270 270 271 270 269 269 270 270 270 269 269 269 269 268 268 268 268 268 267 267
279 279 278 279 280 281 279 278 278 277 277 277 276 275 274 274 273 273 272 271 270 270 271 270 269 269 269 269 269 268 269 269 268 268 268 269 268 268 268 267 267 267 267 266
280 281 281 279 279 279 279 279 279 279 278 278 278 276 274 273 272 271 271 271 270 270 270 270 269 268 268 269 268 268 268 268 268 268 268 267 267 267 267 266 266 266 266 265
280 279 280 279 279 278 278 277 277 277 277 277 276 276 274 273 272 271 271 271 271 270 270 269 269 269 268 268 267 268 268 268 268 267 267 267 267 267 266 266 266 266 266 265

GFSNGP_850_thetae_102.txt.gz
Theta_e
316 316 315 317 318 317 316 315 318 317 320 316 313 309 307 304 303 301 300 298 297 299 298 298 302 303 303 307 314 320 324 325 325 324 324 323 323 323 323 322 323 322 322 323
314 316 314 313 312 312 312 314 316 319 317 313 309 307 304 302 301 299 298 296 296 298 299 300 299 303 302 301 303 308 314 320 323 324 323 321 322 325 325 325 325 325 323 325
310 310 311 312 311 313 312 311 313 316 315 311 306 302 300 300 298 297 297 296 296 295 296 298 300 299 303 300 301 302 306 309 313 318 321 321 321 323 324 323 323 324 324 324
309 309 315 312 313 312 311 310 309 310 311 305 300 296 295 295 295 295 295 296 295 296 296 296 298 300 299 302 301 301 302 303 304 307 311 315 318 320 321 320 321 321 321 321
314 312 312 312 310 309 313 309 308 309 307 304 299 298 295 294 294 294 295 295 294 293 293 295 296 297 300 299 301 301 300 301 302 303 304 305 305 306 308 312 316 318 318 318
313 311 315 308 305 307 309 309 305 305 304 305 304 309 297 293 292 294 294 294 293 292 291 293 293 295 298 298 298 299 298 299 300 301 302 303 302 301 300 301 301 301 305 308
312 312 309 302 304 305 312 305 303 301 300 298 297 295 292 292 293 293 293 294 293 291 290 289 290 292 294 293 294 293 295 298 299 300 301 300 301 299 297 301 301 300 301 299
310 311 310 300 304 304 300 298 299 300 299 297 294 293 292 291 292 292 293 293 292 291 289 288 289 289 290 291 290 292 294 296 295 296 298 297 299 297 295 296 299 299 300 299
305 304 300 299 298 297 298 297 297 297 298 296 294 293 292 292 291 291 291 291 291 290 289 288 287 288 289 289 290 289 291 293 294 295 294 294 294 293 292 294 296 294 295 295
305 301 299 298 298 297 297 296 297 297 297 297 296 295 294 293 292 292 291 290 290 289 288 286 286 288 288 289 289 289 289 289 291 293 293 293 292 291 292 291 290 290 290 290
302 300 299 296 296 296 296 296 296 296 295 295 295 294 292 292 291 290 289 289 288 287 285 284 284 285 287 288 288 287 287 287 287 288 288 289 290 290 290 289 289 289 289 289
301 298 298 296 294 294 293 293 294 294 294 292 293 292 291 289 288 288 287 286 286 284 283 282 285 286 287 287 287 286 286 286 286 286 286 286 286 287 286 287 288 289 288 288
298 296 296 294 294 294 293 292 292 291 291 291 289 289 287 286 285 284 284 283 283 282 282 282 284 285 285 285 286 286 285 284 284 285 285 285 285 284 285 284 286 286 287 287
296 297 297 295 295 294 293 292 291 290 289 288 287 285 284 283 282 282 282 281 281 281 282 284 285 284 284 283 284 283 284 284 284 283 283 283 283 283 283 282 283 283 283 284
296 296 295 294 294 293 292 292 291 289 287 286 285 284 283 281 280 280 281 281 280 279 280 282 284 284 284 282 282 283 283 282 282 282 282 282 282 282 281 281 281 281 281 281
295 294 293 292 291 290 289 288 287 285 284 283 282 281 280 280 279 280 281 281 282 280 280 280 281 281 282 282 281 281 281 281 281 281 281 281 281 281 281 280 280 280 280 280
294 293 292 291 289 287 286 285 284 283 282 281 280 280 279 280 279 279 280 280 279 278 278 278 278 278 278 280 280 280 280 280 280 280 280 279 279 279 279 278 277 277 275 276
290 289 289 289 288 287 285 283 282 281 280 280 280 280 280 280 280 279 279 278 277 278 277 276 276 277 277 277 279 279 279 279 279 278 278 278 278 278 277 277 276 276 275 274
288 287 286 285 285 284 283 281 281 280 280 280 280 280 280 279 278 277 277 277 277 277 276 275 276 275 276 276 278 278 278 278 278 277 277 277 277 276 276 276 275 274 274 273
285 284 283 282 282 282 282 281 280 280 280 279 279 278 278 278 277 277 278 278 278 277 275 275 275 275 275 275 276 277 276 277 276 276 276 276 275 275 275 274 274 274 273 272
282 282 282 282 282 281 281 280 280 280 280 279 279 278 277 277 277 276 277 278 276 276 274 274 274 274 274 274 275 275 275 275 275 275 275 274 274 274 274 273 273 272 272 271
281 281 281 281 281 281 280 280 280 280 279 278 278 277 277 278 277 277 277 276 275 275 273 273 273 272 272 273 273 273 273 273 274 274 273 273 273 273 272 272 271 271 271 270
280 280 280 280 280 280 280 280 279 279 278 278 277 277 276 276 276 276 276 275 274 273 272 272 272 271 271 272 272 272 272 272 272 272 271 271 271 271 271 271 270 270 269 269
280 280 279 279 279 279 280 279 278 278 278 277 277 276 276 275 275 276 274 274 273 272 271 271 271 270 270 271 270 270 271 271 271 271 270 270 270 270 269 269 269 268 268 268
280 280 279 280 280 281 280 280 279 279 279 279 278 277 276 275 275 274 273 273 272 271 271 271 270 270 270 270 270 269 269 270 269 269 269 269 269 269 269 268 268 267 268 268
281 282 282 280 280 280 280 280 279 279 279 279 279 278 277 276 274 273 273 273 272 271 271 271 270 270 269 269 269 269 269 269 269 269 268 268 268 268 268 268 267 266 266 266
281 280 281 281 280 280 279 278 277 277 277 276 276 276 277 275 274 273 273 272 272 271 271 271 271 270 270 269 269 269 269 269 268 268 268 268 268 268 267 267 267 266 266 266

GFSNGP_850_thetae_105.txt.gz
Theta_e
315 315 314 315 316 316 316 318 319 316 315 312 308 306 304 302 300 299 298 296 297 297 298 299 299 300 301 304 307 312 316 323 326 327 326 326 326 325 324 323 324 323 322 322
316 311 313 313 311 311 313 316 316 314 314 307 305 303 301 299 299 299 298 295 295 296 297 298 299 299 300 302 304 306 308 311 315 322 325 325 325 323 324 324 324 323 323 322
314 312 314 314 311 310 309 310 311 312 310 305 301 298 296 296 296 296 296 295 294 294 295 296 297 298 299 301 302 304 304 304 305 311 320 323 324 323 323 324 322 323 323 322
310 312 316 308 308 308 306 306 307 307 304 301 298 295 294 294 295 295 295 294 293 292 293 294 296 299 299 300 301 301 303 301 301 302 308 315 318 319 321 321 320 321 321 320
313 314 313 309 305 305 309 306 304 304 304 299 297 297 293 293 294 294 294 293 292 292 292 292 294 296 298 299 299 300 299 301 300 298 300 304 306 306 308 311 310 314 312 311
312 313 313 305 302 302 305 304 302 300 299 299 302 301 294 292 293 294 294 293 292 291 290 291 291 294 296 298 298 296 296 296 300 299 299 300 301 300 302 303 303 303 303 305
310 311 306 300 301 302 307 303 300 298 296 295 294 293 292 292 293 293 292 291 290 289 289 290 290 292 292 293 294 295 295 296 297 296 299 298 300 299 301 302 302 302 302 302
306 307 304 298 300 301 300 298 298 298 296 295 293 292 292 292 292 291 291 290 289 288 288 288 289 289 290 290 290 292 294 296 296 296 296 297 299 298 298 300 301 300 300 300
303 302 299 298 297 297 297 297 298 298 296 295 293 293 292 292 291 291 290 289 288 287 287 287 288 289 288 288 289 290 291 292 292 293 295 295 295 295 296 297 296 296 295 295
302 300 298 298 297 297 297 296 296 296 296 295 295 294 292 291 290 289 288 288 287 286 284 285 286 288 288 288 287 288 289 289 289 290 291 291 293 293 292 292 293 292 292 291
301 299 297 296 295 295 295 295 295 294 294 294 293 291 290 289 288 287 287 286 285 284 283 283 284 286 287 287 287 286 286 286 287 287 288 289 289 289 290 289 289 290 290 290
299 299 297 295 294 293 293 293 293 293 291 291 290 289 289 288 286 286 285 284 284 283 284 284 284 284 285 286 285 286 286 286 286 286 286 286 286 287 287 287 287 287 287 288
297 296 296 294 294 293 292 291 290 290 289 289 288 287 286 285 284 283 283 283 283 282 283 284 284 284 283 282 283 284 283 284 284 285 285 284 285 285 286 285 286 286 286 285
296 296 295 296 294 293 293 292 289 288 287 286 285 284 283 283 282 282 282 281 282 283 284 284 284 284 283 283 282 282 282 282 282 282 282 283 283 282 283 283 284 284 284 284
296 295 295 294 293 292 291 290 288 287 286 284 283 283 282 282 282 282 282 282 282 283 283 282 283 283 283 282 282 282 282 282 282 282 282 282 281 281 281 281 282 282 281 282
295 294 293 292 290 289 289 288 287 285 284 283 282 281 281 281 281 281 281 281 281 281 280 280 279 280 281 281 281 280 280 280 281 281 281 281 281 280 280 280 280 279 280 280
294 293 292 290 289 287 285 284 283 282 282 281 281 280 280 280 280 281 280 279 279 279 277 277 277 277 278 280 280 280 280 279 279 279 279 279 279 279 278 278 277 276 277 277
290 289 289 288 287 285 284 283 282 282 281 281 281 281 280 280 279 278 277 278 278 278 276 276 276 277 276 278 279 279 279 279 278 278 277 278 278 277 277 277 276 275 275 274
287 286 286 286 285 285 283 283 282 281 281 281 280 280 279 277 276 276 277 277 277 277 276 275 275 276 275 277 277 277 277 278 277 277 277 277 276 276 276 275 275 274 274 273
285 284 284 284 283 283 283 282 281 281 281 280 279 278 277 277 277 276 277 278 277 276 275 275 275 275 275 275 276 276 276 276 276 276 276 275 275 275 274 274 274 273 273 272
283 283 283 282 282 282 281 281 281 280 280 279 278 278 278 278 277 277 277 277 276 275 275 275 274 274 273 274 275 274 275 275 275 274 274 274 274 273 273 273 273 272 272 271
282 282 282 282 281 281 281 280 280 280 279 279 279 278 278 278 277 276 276 276 276 275 274 273 273 273 272 273 273 273 273 273 273 273 273 273 273 272 272 272 271 271 270 270
282 282 281 281 281 280 280 280 279 279 279 278 278 277 277 276 276 276 275 275 274 274 273 272 271 271 271 271 271 271 271 271 271 271 271 271 271 271 271 270 270 270 270 269
281 281 281 281 280 280 280 280 279 279 279 279 279 278 277 277 276 276 275 274 273 272 272 271 271 271 270 270 270 270 270 270 270 270 270 270 269 269 269 269 269 268 268 268
281 281 281 281 281 281 280 280 280 279 279 279 278 278 278 276 275 275 274 273 272 272 271 271 270 270 270 270 269 269 269 269 269 269 269 269 269 269 268 268 268 268 267 267
281 281 281 280 280 280 279 279 279 279 278 278 278 277 277 277 276 275 274 273 272 272 271 271 271 270 270 270 269 269 269 268 268 268 268 268 268 268 268 268 267 267 267 266
281 281 280 281 281 280 279 279 278 277 277 276 275 275 274 275 275 274 274 273 272 272 271 271 271 271 270 269 269 269 268 268 268 268 268 267 267 267 267 267 267 267 266 266

GFSNGP_850_thetae_108.txt.gz
Theta_e
314 313 314 313 313 315 318 314 314 313 310 307 305 303 301 300 299 298 296 294 294 295 297 299 299 300 301 302 305 307 308 316 322 323 326 327 327 327 328 327 324 323 322 322
313 311 311 311 309 311 312 312 312 309 306 303 299 299 298 298 297 297 295 292 293 294 295 296 297 298 300 301 302 303 305 307 309 318 319 320 325 327 327 326 324 322 323 322
314 312 312 308 308 307 307 308 309 310 305 301 298 296 295 295 295 296 294 292 292 293 293 294 295 297 298 299 301 302 302 303 305 307 311 314 317 315 324 324 324 325 323 322
312 313 309 306 304 305 304 303 304 305 302 298 295 294 293 294 294 293 292 291 291 292 293 294 294 296 297 298 300 300 300 301 302 303 305 303 307 307 315 317 321 323 323 322
314 313 309 306 302 302 306 304 301 302 301 297 295 295 292 293 293 293 291 290 290 290 291 292 293 294 295 297 298 299 299 299 299 301 302 302 301 301 302 302 307 304 311 314
312 310 310 304 300 300 302 303 300 298 297 296 299 298 294 292 292 292 291 290 290 290 290 291 290 291 293 294 296 296 296 297 298 299 299 299 300 300 301 301 301 303 299 302
308 307 305 299 299 301 306 301 298 296 295 294 294 292 292 291 291 291 290 289 289 289 289 289 290 290 291 291 292 293 294 296 297 298 297 298 298 298 300 299 301 301 300 300
304 304 303 298 299 301 300 298 297 296 295 293 292 291 291 291 290 290 289 289 288 289 288 288 289 289 287 288 288 290 292 293 294 294 296 296 296 296 297 297 297 298 300 299
302 301 298 297 297 297 297 297 297 296 295 293 292 291 290 289 289 288 288 287 287 288 288 288 288 288 288 287 287 288 289 290 292 292 293 294 294 294 295 295 295 295 296 294
299 299 298 296 296 296 296 295 295 295 295 294 293 291 289 289 288 287 287 286 286 287 287 286 287 287 287 287 286 287 288 288 288 290 290 291 292 292 292 292 292 291 291 290
299 297 296 295 294 294 294 295 293 293 293 292 292 289 289 288 287 286 285 285 286 286 286 285 284 286 286 286 286 286 287 286 287 287 288 289 290 289 288 287 288 289 288 288
298 298 297 295 293 292 292 292 292 292 291 290 290 289 288 287 285 285 284 284 285 284 284 284 284 284 285 286 286 286 286 285 285 286 286 286 286 288 288 287 286 287 287 287
296 296 295 294 293 292 291 290 290 290 288 288 287 286 286 285 284 283 283 283 283 283 284 284 284 284 284 284 284 284 285 284 284 284 285 285 285 285 286 286 286 286 285 285
295 295 295 294 292 292 290 289 289 288 287 286 285 284 283 283 283 282 282 282 282 282 282 282 282 283 283 282 282 282 282 283 283 283 283 283 283 283 283 284 284 285 285 285
295 295 294 292 292 291 290 289 288 287 285 285 284 283 282 282 282 282 282 281 281 281 280 280 281 282 281 281 281 281 281 281 281 281 281 282 281 281 281 281 282 282 282 282
294 294 293 293 291 290 289 288 287 286 284 283 283 282 282 281 281 281 281 281 281 280 278 277 278 278 280 280 280 280 279 280 280 280 280 280 280 280 279 280 279 280 280 280
294 291 291 290 289 288 286 285 284 283 283 282 282 282 281 281 280 280 280 280 279 278 277 276 277 276 278 279 279 279 279 279 279 278 279 279 278 278 278 278 277 276 277 276
292 291 290 289 288 287 285 284 283 282 282 281 281 281 280 279 278 278 277 278 278 278 277 276 276 276 276 278 278 278 278 278 278 278 277 277 277 277 277 276 276 275 275 275
288 288 287 287 286 285 284 283 282 282 281 281 280 279 279 278 278 277 277 278 277 277 277 276 275 275 275 276 277 277 277 277 277 277 277 276 276 276 275 275 274 274 273 273
286 285 285 285 284 284 283 282 282 281 281 280 279 278 278 278 278 277 276 277 277 276 276 275 274 274 274 273 275 275 275 275 275 275 275 275 275 275 274 274 274 273 273 272
284 284 284 284 283 283 282 282 281 281 280 279 279 278 278 278 278 277 276 276 275 275 274 274 273 273 273 272 273 274 274 274 273 273 274 273 273 273 273 273 272 272 271 271
283 283 283 282 282 281 281 280 280 279 279 278 278 278 277 277 276 276 276 275 275 274 274 273 272 272 272 271 272 272 272 272 272 272 272 272 272 272 271 271 271 271 271 270
283 282 282 282 281 280 280 279 279 279 278 279 278 278 277 277 277 276 276 275 274 273 272 272 271 271 271 270 271 271 270 270 271 270 270 270 270 270 270 270 270 269 269 269
282 282 281 281 280 280 280 280 279 279 279 279 279 278 278 277 277 276 275 275 273 272 272 271 271 270 270 270 270 270 269 269 269 269 269 269 269 269 269 269 268 268 268 268
281 281 280 281 281 281 281 280 279 279 279 278 278 277 277 277 277 276 275 274 273 272 272 271 271 270 270 270 269 269 269 269 269 269 268 268 268 268 268 268 267 267 267 267
281 281 281 280 280 279 279 279 279 279 278 277 276 276 275 274 275 275 274 273 273 272 272 271 271 271 270 270 270 269 269 268 268 268 268 268 268 267 267 267 267 267 267 266
281 281 280 280 280 280 280 279 279 278 277 276 275 274 274 273 273 274 273 273 273 272 272 272 271 271 271 270 270 269 269 268 268 268 267 267 267 267 267 267 266 266 266 266

GFSNGP_850_thetae_111.txt.gz
Theta_e
310 310 308 309 311 316 315 312 311 308 306 303 301 300 299 298 296 294 293 292 293 294 295 296 298 299 300 301 301 303 307 311 313 313 316 323 326 325 327 326 330 331 329 324
311 307 306 306 306 306 311 309 307 305 302 300 298 297 297 297 296 293 292 290 291 292 294 294 295 297 298 299 299 301 303 304 307 308 311 316 319 323 323 325 324 325 325 323
312 311 310 306 305 304 304 304 307 306 302 298 296 295 295 295 294 292 290 289 291 291 291 293 293 295 297 298 300 300 301 301 302 303 305 308 310 314 314 319 322 323 322 322
312 311 308 305 302 304 302 301 303 301 299 296 294 293 293 293 293 290 289 289 290 291 291 292 293 294 296 298 299 299 299 299 300 301 301 302 305 306 306 306 307 316 316 318
313 309 307 305 301 301 304 302 299 301 298 296 295 296 292 292 291 290 289 288 289 290 290 291 292 292 293 296 297 298 298 297 297 299 300 300 301 302 301 304 304 303 303 305
311 309 308 302 299 299 300 303 298 297 296 296 297 297 292 291 291 289 288 288 288 289 290 290 289 290 292 292 294 294 295 295 296 297 298 299 300 300 300 301 300 301 303 303
308 307 304 298 299 300 305 301 297 295 294 292 293 292 291 290 289 289 288 287 287 288 288 289 289 290 290 290 291 292 293 293 294 295 296 296 297 298 299 300 300 300 301 301
304 302 302 297 299 300 299 297 296 295 293 292 291 291 289 289 288 288 287 287 286 287 287 288 288 288 288 288 288 288 290 292 293 293 294 294 295 295 295 297 298 298 297 297
301 299 297 297 296 297 297 296 296 294 293 292 290 289 289 288 287 287 286 286 286 286 286 287 287 287 288 287 288 289 289 289 290 292 292 293 293 293 294 294 295 295 294 293
298 298 297 296 295 295 295 294 295 296 294 293 290 289 288 287 287 286 286 286 285 286 286 286 286 286 286 287 287 288 288 289 289 289 290 291 291 291 291 290 290 290 290 290
298 297 295 294 293 293 294 293 293 294 293 291 290 288 287 286 285 285 284 284 285 285 285 285 285 285 285 286 286 286 287 287 287 287 288 288 289 289 288 287 287 287 288 288
295 296 296 294 292 292 293 292 291 291 290 289 288 288 286 285 284 284 284 284 284 284 284 284 284 284 285 285 285 285 286 286 285 285 285 285 285 286 287 287 287 287 286 286
297 296 295 293 292 291 291 290 289 289 288 287 286 285 284 284 283 283 283 283 283 283 283 283 284 284 284 284 284 284 283 283 283 284 284 283 283 284 284 284 285 285 286 286
295 294 293 293 292 291 290 289 289 288 287 286 285 284 284 283 283 283 283 282 281 281 281 281 282 283 283 283 282 282 282 282 282 282 282 282 282 282 282 282 282 283 283 283
295 296 294 291 291 290 289 288 288 287 285 284 283 283 283 282 282 282 281 280 279 278 278 278 279 280 281 281 281 280 280 280 280 280 280 280 280 280 280 281 280 280 280 281
294 293 292 291 290 289 288 287 286 285 283 283 282 282 282 282 281 281 280 280 280 279 277 276 277 277 278 279 279 279 279 279 279 279 279 279 279 279 278 278 278 277 278 279
293 291 290 290 289 287 286 285 284 283 283 282 282 282 281 281 280 279 279 278 279 279 278 277 276 276 276 277 278 278 278 278 278 278 278 277 278 277 277 277 276 276 275 275
293 293 291 290 289 287 285 284 283 283 282 282 281 281 281 280 279 279 278 278 278 278 277 277 276 276 276 276 276 277 277 277 277 277 277 277 277 276 276 275 275 275 274 274
289 289 289 288 287 286 285 284 283 282 282 281 281 280 279 279 278 278 277 278 278 277 276 276 275 275 275 275 275 275 275 276 276 276 276 276 275 275 275 274 274 274 273 273
287 286 286 286 285 284 283 282 282 281 281 280 279 279 279 279 278 278 277 277 276 275 275 275 274 274 274 273 273 273 274 274 274 274 274 274 274 274 274 273 273 272 272 272
285 285 285 284 283 283 282 282 281 281 280 280 279 278 278 277 277 276 276 276 275 275 274 273 273 272 272 272 272 272 273 273 272 272 272 272 272 272 272 272 272 271 271 271
284 284 284 283 283 282 282 281 280 280 279 278 278 277 278 277 277 277 276 275 275 274 273 272 272 271 271 271 270 271 271 271 271 271 271 271 271 271 271 271 270 270 270 270
284 283 283 282 282 281 280 279 279 279 279 279 279 278 278 278 277 277 277 276 275 274 273 272 271 271 270 270 270 270 270 269 269 269 269 269 269 269 269 269 269 268 268 268
283 283 282 281 281 280 280 280 280 279 279 279 278 278 278 277 277 277 276 275 274 274 273 272 271 270 270 270 270 269 269 269 269 268 268 268 269 268 268 268 268 268 267 267
282 282 281 281 281 280 280 280 280 279 279 278 277 277 277 276 275 275 275 275 274 273 273 272 271 271 271 270 270 269 269 269 268 268 268 268 268 267 267 267 267 267 267 267
282 281 281 280 280 280 280 279 279 279 278 278 277 276 275 274 274 274 274 274 274 273 272 272 272 271 271 271 270 270 269 269 268 268 268 268 267 267 267 267 267 267 266 266
281 281 281 280 280 280 280 279 279 278 277 276 275 275 274 274 273 273 273 273 273 273 272 272 272 272 271 271 271 270 270 269 269 268 268 268 267 267 266 266 266 266 266 266

GFSNGP_850_thetae_114.txt.gz
Theta_e
308 306 306 305 309 309 308 308 307 304 302 300 299 298 296 295 292 291 291 291 290 290 292 294 297 298 298 300 301 302 304 305 306 310 312 316 319 322 324 324 324 326 326 328
311 310 309 304 304 304 306 306 304 302 300 298 296 295 295 293 292 290 290 289 290 289 290 291 293 295 297 298 299 300 301 302 303 305 308 311 313 316 317 320 322 323 324 324
312 308 307 304 303 302 302 303 305 303 300 297 295 294 293 293 290 289 288 288 288 289 289 289 290 293 296 296 298 299 299 300 300 301 302 303 305 308 310 312 312 314 314 320
313 310 308 303 301 302 301 299 301 299 297 295 293 292 291 291 289 288 287 287 288 289 289 290 290 292 293 295 296 297 298 298 299 299 300 301 302 302 304 305 307 308 309 309
312 309 306 304 300 300 302 300 298 300 299 296 294 294 290 290 289 287 287 287 287 288 289 289 289 288 290 293 294 295 296 296 296 298 298 299 300 300 300 302 303 303 303 305
309 309 307 300 298 299 300 302 297 295 294 296 297 295 290 288 288 287 286 286 287 288 288 288 288 288 289 289 291 292 293 294 295 296 297 297 298 298 299 300 300 300 301 302
307 306 303 298 298 300 305 300 296 293 292 291 292 290 288 288 288 287 286 286 286 287 287 287 288 288 288 288 288 288 290 292 293 294 295 295 296 297 297 297 297 297 298 297
305 303 303 297 300 300 299 296 295 293 292 291 289 289 288 288 287 286 286 286 286 286 286 287 287 288 288 288 287 287 288 289 290 292 293 294 294 294 295 295 296 296 295 295
300 299 297 296 296 296 297 297 294 293 293 291 290 289 288 288 287 286 286 285 285 286 286 286 287 287 287 287 287 287 288 288 288 289 290 291 292 292 292 292 292 292 293 293
299 297 296 295 295 295 295 296 295 293 293 292 290 288 288 287 286 286 285 285 285 285 285 285 285 285 285 286 286 287 287 287 287 288 288 289 289 290 290 289 289 289 289 289
297 296 294 293 293 293 293 293 294 293 292 290 289 288 287 286 285 284 284 284 284 284 284 284 284 284 285 285 285 285 285 285 285 285 285 286 286 286 286 285 285 285 286 287
299 296 295 293 292 292 292 291 291 290 290 288 287 287 285 285 284 283 283 283 283 283 283 283 283 284 284 283 283 284 284 283 283 283 283 283 283 284 284 284 284 285 285 285
297 296 294 291 291 291 291 290 289 289 287 287 285 284 284 283 283 282 282 282 282 281 281 281 282 283 283 282 282 281 281 282 282 282 282 282 282 282 282 282 283 283 284 284
295 294 293 293 291 290 290 289 288 287 286 285 284 283 283 282 282 282 281 281 280 279 279 279 279 280 280 280 280 280 280 280 280 279 280 280 280 280 280 281 281 281 281 282
295 295 293 292 291 289 289 288 287 286 285 284 283 283 282 282 282 281 280 280 279 278 278 278 278 278 278 279 279 279 279 279 279 279 278 278 278 278 278 278 278 278 278 279
293 293 291 291 289 289 288 287 285 284 283 283 282 282 281 281 280 279 279 278 279 279 278 277 277 277 277 277 277 278 278 278 278 278 278 277 277 277 277 277 276 276 276 276
292 290 290 289 288 287 286 285 284 284 283 282 282 281 281 280 279 278 278 278 278 277 277 277 277 276 276 276 276 276 276 277 276 277 277 276 276 276 276 275 275 275 274 274
293 293 291 290 289 288 286 284 284 283 283 282 282 281 280 279 279 279 278 278 277 277 276 276 275 275 275 275 275 275 275 275 275 275 275 276 275 275 275 274 274 274 273 273
290 291 290 289 287 286 285 284 283 282 282 281 281 280 279 279 279 278 277 277 276 276 275 275 274 274 274 274 274 273 273 274 274 274 274 274 274 274 274 273 273 273 272 272
288 287 287 287 285 284 284 283 282 282 281 280 280 279 279 278 277 276 276 276 276 276 275 275 274 273 273 273 272 272 272 272 272 272 272 273 273 273 272 272 272 271 271 271
286 286 285 284 284 283 282 282 282 281 280 279 278 278 277 278 278 277 277 276 276 275 275 274 273 273 272 271 271 271 271 271 271 271 271 271 271 271 271 271 271 271 270 270
285 284 284 283 283 282 282 281 280 279 279 278 278 278 278 278 278 277 277 276 276 275 275 274 273 272 271 271 270 270 270 270 269 269 269 269 270 270 270 270 270 269 269 269
284 284 283 283 282 281 280 279 279 279 279 279 278 278 278 277 277 277 276 276 276 275 275 273 273 272 271 270 270 270 269 269 269 269 268 268 268 268 268 268 268 268 268 268
284 283 283 282 281 280 280 280 280 279 279 279 278 278 277 276 276 275 274 274 275 275 274 273 272 272 271 271 270 270 269 269 269 268 268 268 268 268 267 267 267 267 267 267
283 283 282 281 281 280 280 280 279 279 279 278 278 277 276 275 275 274 274 273 273 274 273 273 272 272 271 271 271 270 270 269 269 269 268 267 267 267 267 267 267 267 267 266
283 282 281 280 280 280 280 280 279 279 278 278 277 276 275 274 274 274 273 273 273 273 273 272 272 272 271 271 271 271 271 270 270 269 268 268 267 267 267 266 266 266 266 266
281 281 281 281 280 280 280 280 279 278 278 277 275 274 274 274 273 273 273 273 273 272 272 272 271 271 271 271 271 271 271 270 270 270 269 268 268 267 267 266 266 266 266 266

GFSNGP_850_thetae_117.txt.gz
Theta_e
309 307 305 305 304 306 306 307 305 303 301 299 297 296 293 292 291 290 289 289 288 288 289 292 295 296 297 299 299 300 302 303 304 306 308 311 315 316 319 320 323 323 323 324
310 310 309 304 303 303 305 304 302 301 299 297 295 293 292 291 290 289 289 288 287 287 287 289 292 294 297 297 298 299 300 300 301 302 304 305 308 309 312 313 315 319 319 320
311 310 308 306 303 302 302 302 304 303 299 295 294 293 291 290 289 288 287 286 287 287 288 287 289 292 294 295 297 299 299 299 299 300 300 301 303 304 306 307 308 310 311 311
312 310 310 305 301 301 300 299 300 298 297 294 292 291 290 288 287 286 286 285 286 287 287 287 287 289 291 294 295 296 297 298 298 298 298 299 300 300 302 302 303 305 306 306
312 310 307 304 300 301 302 300 297 298 298 294 293 293 289 286 285 285 284 286 287 287 288 287 287 287 289 291 292 293 294 295 296 297 297 298 299 299 299 300 301 301 301 302
310 311 310 301 299 299 300 301 296 294 295 294 297 297 291 286 287 286 284 285 286 287 288 288 288 288 289 289 289 290 291 292 293 295 296 296 296 297 297 298 297 297 298 298
305 307 302 298 298 300 304 301 295 293 292 293 292 290 287 287 286 285 285 286 287 287 287 287 287 287 288 288 287 288 289 290 292 292 293 293 294 295 295 295 296 296 296 296
304 305 305 297 300 302 298 295 294 293 292 290 288 287 287 286 286 286 286 286 286 286 287 287 288 288 288 288 287 287 288 289 289 290 291 291 292 292 292 293 293 293 293 293
300 299 297 296 295 296 297 295 294 293 291 290 289 287 286 285 284 284 284 284 284 285 285 285 286 285 286 285 285 286 286 287 287 288 289 289 290 290 291 290 291 290 290 289
299 298 296 295 294 294 295 294 293 292 291 289 288 287 285 284 284 284 284 284 284 284 284 284 284 284 284 285 285 285 286 285 285 285 286 286 287 287 287 287 288 288 288 288
297 296 294 293 293 293 293 293 293 291 290 288 287 285 283 282 282 282 282 283 283 283 283 283 283 283 283 282 282 282 282 283 284 284 284 284 284 284 284 283 284 285 285 286
300 296 296 293 293 292 291 290 290 289 288 287 286 285 284 282 283 283 283 282 282 282 281 281 282 282 282 282 281 281 281 280 281 281 282 282 282 282 283 283 283 284 284 285
297 296 294 293 292 291 290 289 288 288 287 286 285 284 284 284 283 283 282 282 281 280 280 279 279 279 280 280 280 280 280 279 279 279 279 280 280 280 280 280 281 282 282 283
295 294 292 291 290 290 290 289 288 287 286 285 284 284 283 283 282 282 282 280 279 279 279 279 279 279 279 279 279 279 279 279 279 279 279 278 279 279 278 278 278 278 279 279
295 295 294 292 290 289 288 288 287 286 285 284 283 283 282 282 281 281 280 279 279 279 279 279 279 279 278 278 278 278 278 278 278 277 277 277 278 277 277 277 277 277 277 277
292 292 292 291 290 289 288 287 286 285 284 283 283 282 282 281 280 279 278 278 278 278 278 277 277 276 276 276 276 276 276 276 276 276 276 276 276 276 276 276 276 275 275 275
292 289 290 290 289 288 287 286 285 284 283 283 282 281 280 279 278 278 278 278 278 277 276 276 275 275 275 275 275 275 275 275 275 275 275 275 275 275 275 274 274 274 274 273
293 293 292 291 290 288 286 285 284 283 282 282 281 280 279 279 279 278 278 277 276 276 275 275 275 274 274 274 274 273 273 274 274 274 274 274 274 274 274 273 273 273 272 272
292 292 291 290 288 286 285 284 283 282 281 281 280 279 279 279 278 277 277 276 276 276 275 275 274 274 273 273 273 272 272 272 272 272 272 272 273 273 273 272 272 272 271 271
289 289 288 288 286 285 284 283 282 282 281 280 280 279 278 278 278 277 277 277 276 276 276 275 274 274 273 272 271 271 271 271 271 271 271 271 271 271 272 271 271 271 270 270
287 287 286 286 285 284 283 282 281 281 280 279 278 278 278 278 278 277 277 277 276 276 276 275 274 274 273 272 271 271 270 270 270 270 270 270 270 270 270 270 270 270 269 269
286 286 285 284 283 283 282 281 280 279 279 279 278 278 278 277 277 277 276 276 275 275 275 275 274 273 272 272 271 270 270 270 269 269 269 269 269 269 269 269 269 268 268 268
285 284 284 283 282 281 280 279 279 279 279 278 278 278 278 277 276 276 275 274 274 274 274 274 273 273 272 271 271 270 270 270 269 269 269 268 268 268 268 268 268 268 268 268
284 283 282 282 281 280 280 280 280 279 279 279 278 278 277 277 276 275 274 274 273 273 273 273 273 272 272 272 271 271 271 270 270 270 269 269 268 268 267 267 267 267 267 267
283 283 282 281 280 280 280 279 279 279 279 278 278 277 276 275 274 274 274 273 273 273 273 273 273 272 272 272 272 271 271 271 271 270 270 269 269 268 268 267 267 267 266 266
283 282 281 281 280 280 280 280 280 279 278 278 277 276 274 274 274 273 273 273 273 272 272 272 272 272 271 271 271 271 271 270 270 271 270 270 269 269 268 267 267 266 266 266
281 281 281 280 280 280 280 280 279 278 278 277 275 275 274 273 273 272 272 272 271 271 271 271 270 270 270 270 270 269 269 269 269 269 269 270 270 269 269 268 267 267 266 266

GFSNGP_850_thetae_120.txt.gz
Theta_e
309 309 310 306 306 307 308 310 312 305 302 299 297 296 293 292 291 291 290 289 288 288 288 288 291 293 295 296 299 299 300 301 301 303 305 307 309 311 313 315 317 319 321 322
311 311 311 307 305 306 307 306 304 303 300 297 295 293 292 291 291 290 290 289 288 287 287 287 287 288 293 294 298 298 297 298 299 300 301 302 303 305 306 308 308 310 313 315
312 312 310 311 304 304 304 303 306 306 301 297 296 293 291 290 290 289 289 288 286 285 286 286 287 288 291 291 293 296 296 298 299 299 300 300 300 301 302 303 303 305 306 308
312 312 315 306 303 303 302 301 302 301 298 296 294 291 290 289 288 288 287 287 286 285 286 287 286 287 287 290 293 294 295 297 297 298 298 299 300 300 300 300 301 301 301 302
312 314 307 305 303 304 305 301 299 300 299 296 293 294 290 288 287 287 286 286 286 285 286 286 287 288 289 290 291 292 292 292 294 295 296 296 296 297 297 298 298 298 298 299
310 312 312 304 301 300 302 305 298 298 298 299 297 301 294 287 285 286 286 286 286 286 285 285 285 285 288 288 288 288 289 290 292 293 293 294 293 294 295 296 296 295 296 296
309 310 305 300 299 299 306 304 298 297 297 297 296 293 288 287 285 285 285 285 286 286 285 285 285 286 285 285 286 287 289 290 290 291 291 291 292 292 293 293 294 294 294 294
307 309 308 298 301 304 299 297 297 296 294 292 290 288 286 284 284 285 285 285 285 285 284 284 284 285 284 284 285 285 286 287 288 288 289 289 290 290 290 291 291 291 292 292
303 302 298 296 296 297 297 296 296 295 293 292 290 286 285 284 283 284 284 284 284 284 284 283 283 283 283 283 285 285 286 286 285 285 286 287 287 288 288 288 288 287 288 288
302 299 297 295 294 295 296 295 294 293 292 291 289 287 286 285 285 284 283 283 283 283 283 282 282 282 282 283 284 284 284 284 285 285 284 284 285 285 285 286 284 285 286 286
299 297 296 294 293 293 293 292 291 291 290 289 289 287 286 285 284 283 282 282 281 281 281 280 281 282 282 282 282 283 283 283 283 283 283 283 282 282 282 284 284 284 284 284
304 297 298 295 292 292 291 290 290 289 288 287 287 286 285 284 283 282 281 280 280 279 279 279 280 280 281 281 281 281 282 282 281 282 282 281 281 281 281 280 280 280 281 282
298 296 295 293 292 290 290 289 288 287 286 285 285 284 284 283 281 281 280 279 279 279 279 279 279 279 279 279 279 279 279 279 280 281 281 280 280 280 280 279 279 279 279 279
295 293 292 291 290 289 288 287 286 285 284 283 283 282 282 281 281 280 280 279 279 279 279 279 279 279 279 279 279 279 278 279 279 279 279 278 278 278 278 278 278 278 278 278
296 295 294 291 289 288 287 287 286 285 283 283 282 281 281 281 281 280 280 280 279 280 279 278 278 277 277 277 277 277 277 277 277 278 278 277 278 278 278 277 277 277 276 276
293 292 291 290 289 288 287 287 286 284 283 282 282 282 282 281 280 280 279 279 279 278 277 277 277 276 276 276 276 276 276 276 276 277 277 277 277 277 277 277 277 276 275 273
292 292 291 290 289 288 287 285 284 284 283 283 282 281 281 280 280 279 279 278 277 277 277 276 276 276 275 275 275 275 275 276 275 276 276 276 276 276 276 276 275 275 274 272
294 293 292 291 289 288 286 285 285 284 283 283 282 281 280 280 279 278 277 277 277 276 276 276 276 275 275 274 274 273 274 274 275 275 275 275 274 274 275 275 274 274 273 272
292 292 291 290 289 288 286 285 284 284 283 282 281 280 280 278 278 278 277 277 277 277 277 276 276 275 274 274 273 273 273 273 273 274 273 273 274 274 274 274 274 273 272 272
291 290 290 290 288 286 285 284 283 282 282 281 280 279 278 278 278 278 277 277 277 277 276 276 275 275 274 273 273 272 272 272 272 272 272 271 272 272 272 272 272 272 272 271
290 289 288 287 286 284 284 283 283 282 281 279 279 278 278 278 278 277 277 278 278 276 275 275 275 274 273 273 272 272 272 271 271 271 271 271 271 271 271 271 271 271 271 271
288 287 286 285 284 284 283 282 281 280 279 279 279 278 278 278 277 277 276 276 275 274 274 274 274 273 273 273 272 272 271 271 271 271 271 271 270 270 270 270 270 270 270 269
286 286 285 284 283 282 281 280 280 279 279 279 279 278 278 277 277 276 276 275 274 274 273 273 273 273 273 273 272 272 272 271 271 271 271 271 270 270 269 269 269 269 269 269
285 284 283 283 282 281 280 280 280 280 279 279 278 278 277 277 276 276 275 274 274 273 273 273 273 273 272 272 271 271 271 271 271 271 271 271 270 270 270 269 269 268 268 268
284 283 283 282 281 280 280 280 280 279 279 278 278 277 276 275 274 274 274 273 273 272 272 272 272 272 272 271 271 270 270 270 270 270 269 270 270 270 270 270 269 268 268 268
283 283 282 281 281 281 281 280 281 280 279 279 277 276 275 274 273 273 272 272 271 271 271 270 270 270 269 269 269 269 269 269 269 269 268 268 269 269 269 269 269 268 268 268
282 281 281 280 280 280 280 280 280 279 278 277 276 275 274 273 272 272 271 270 270 270 269 268 268 267 268 268 267 267 267 267 267 267 267 267 268 268 268 268 269 268 268 267

GFSNGP_850_thetae_123.txt.gz
Theta_e
312 311 311 309 307 308 308 311 313 308 305 301 299 297 295 294 294 293 291 290 289 288 288 288 289 289 290 294 294 294 295 296 297 300 302 305 306 308 310 312 312 312 314 317
312 312 311 311 307 308 308 307 306 305 303 299 297 296 294 294 294 292 291 290 288 287 287 288 288 288 288 290 293 294 298 298 297 300 301 301 303 304 306 306 307 308 310 310
313 313 312 314 307 307 306 306 308 310 303 299 298 296 293 292 292 291 290 290 288 287 287 287 287 287 287 288 293 295 296 298 299 299 299 299 298 299 301 301 302 304 304 305
312 313 314 307 307 307 306 305 304 302 301 299 297 294 292 291 291 290 290 290 289 288 287 287 287 287 287 289 291 292 293 295 297 296 296 296 297 298 297 298 298 299 299 300
312 313 309 306 305 306 307 305 303 303 301 298 296 296 293 290 289 289 289 289 289 289 288 288 288 287 288 289 289 289 290 290 292 292 293 294 295 296 296 296 297 296 297 297
311 311 314 308 304 303 304 307 301 301 301 299 298 301 297 289 288 289 289 289 289 289 288 288 288 288 288 287 288 288 288 289 289 290 291 292 292 292 292 293 293 293 293 293
310 311 308 302 301 302 308 307 300 300 301 301 299 294 290 289 287 289 289 288 289 288 288 287 287 288 287 288 288 288 288 288 289 290 290 290 290 291 291 291 292 292 292 292
309 309 310 300 301 305 302 300 299 298 297 295 292 290 288 286 286 288 289 288 288 288 287 286 286 287 287 287 288 288 288 288 287 287 287 287 287 288 289 290 290 290 291 290
306 305 299 298 300 300 299 299 298 297 296 293 291 288 287 286 286 287 288 288 287 287 286 285 285 285 285 285 286 287 287 287 287 286 286 286 285 285 286 287 286 287 287 287
304 300 298 297 297 297 297 297 296 295 294 293 291 289 289 289 288 287 286 286 286 285 284 284 283 283 283 284 285 285 286 286 285 286 285 285 285 284 283 282 282 281 282 283
301 299 298 296 296 295 295 294 294 294 293 292 291 290 290 289 287 286 285 285 284 283 282 282 281 281 282 282 282 283 284 284 284 285 284 284 284 283 282 281 280 279 279 279
307 299 300 296 294 294 293 293 292 291 291 290 290 289 288 287 286 285 284 283 283 282 281 280 280 281 281 281 281 281 283 282 283 283 283 283 283 283 283 281 280 280 279 278
300 298 296 294 293 292 292 291 291 290 289 288 288 288 287 285 284 282 283 282 281 280 280 280 280 279 279 279 279 279 280 281 281 282 282 281 281 281 281 281 281 280 279 278
297 295 293 293 292 292 291 290 289 288 287 287 286 285 284 283 283 282 281 280 280 280 280 279 279 279 279 279 278 278 278 280 279 280 280 280 280 280 280 280 280 280 279 277
297 297 294 294 292 291 289 289 288 287 286 285 285 284 283 283 282 281 280 280 280 279 278 278 278 278 278 277 277 277 278 279 278 279 279 279 280 280 280 279 279 279 279 278
297 295 293 292 291 290 290 289 288 287 285 285 284 283 282 281 281 281 280 280 279 278 277 277 277 277 277 277 277 277 278 278 277 278 279 279 279 279 279 279 278 278 278 276
296 294 293 292 291 290 290 289 287 285 284 283 283 282 281 281 280 280 279 278 278 278 277 277 277 277 276 276 276 276 277 277 277 278 278 277 277 277 277 277 277 277 277 276
296 295 294 292 291 290 288 287 285 284 284 283 282 281 281 280 280 278 278 278 278 278 278 278 277 276 276 275 275 275 276 276 276 276 276 276 276 276 276 276 276 276 276 275
295 295 294 292 290 288 286 285 284 284 283 282 281 281 280 279 279 279 278 278 278 279 279 277 276 276 275 274 274 274 275 275 275 275 275 275 275 275 275 275 275 275 275 275
294 293 291 290 288 286 285 285 284 283 282 281 281 279 279 279 278 278 278 279 279 278 277 276 275 275 275 274 273 274 275 274 274 274 274 274 274 274 273 274 273 273 274 274
291 289 289 289 287 286 285 284 283 282 281 280 279 279 279 279 278 278 278 279 279 277 276 275 275 275 275 274 274 274 274 274 274 274 273 273 273 273 273 272 272 272 272 272
290 289 288 287 285 285 284 283 282 281 280 279 279 279 279 279 279 279 278 278 277 276 275 276 276 276 275 274 273 273 274 274 274 274 273 273 273 272 272 272 272 271 271 271
288 287 286 285 284 283 282 281 280 280 280 279 279 279 279 279 279 279 279 278 276 275 274 275 275 274 273 273 273 273 273 273 273 273 273 273 273 272 272 272 271 271 271 271
286 285 284 283 283 282 281 280 280 280 280 279 279 278 278 279 279 278 278 276 275 274 273 274 274 273 272 272 272 273 273 273 272 272 272 272 272 272 272 272 272 271 270 270
285 284 284 283 282 281 282 281 281 281 280 280 280 278 277 277 276 276 275 274 274 273 273 273 272 271 271 271 271 271 271 271 271 271 271 271 271 270 270 270 271 272 271 270
284 283 283 282 284 284 283 282 283 282 281 281 280 279 277 276 275 274 274 273 272 272 271 271 270 269 269 268 268 268 268 268 268 268 268 268 268 269 269 269 269 270 271 270
283 283 283 283 283 283 283 283 282 282 280 279 278 278 275 274 274 273 272 271 270 270 269 269 268 268 267 266 266 266 266 266 266 265 265 265 266 266 267 267 268 268 268 269

GFSNGP_850_thetae_126.txt.gz
Theta_e
312 312 313 311 309 309 309 310 313 309 306 301 298 297 295 296 295 294 292 291 289 289 289 289 289 290 289 292 294 294 296 297 299 303 301 300 304 307 307 312 312 311 314 316
311 311 312 313 309 308 309 307 307 306 303 299 298 297 295 295 294 293 292 291 289 289 289 288 288 289 289 288 293 295 294 291 292 296 297 295 297 298 299 301 303 306 305 306
312 313 312 314 311 309 309 308 308 310 305 301 299 296 294 294 293 292 291 291 290 289 289 289 288 289 288 288 288 291 293 294 294 294 293 294 294 296 297 299 299 299 301 301
312 314 315 309 308 308 308 307 305 304 302 301 298 295 293 292 292 291 291 291 290 289 289 289 288 288 288 289 289 289 290 291 292 292 293 293 294 295 295 295 295 297 298 299
311 312 310 308 308 308 308 307 305 304 302 299 297 295 292 291 291 291 291 291 290 289 289 289 289 288 288 289 289 289 289 288 288 289 290 289 290 291 292 294 294 294 295 295
311 311 310 308 307 305 306 309 304 303 302 300 298 301 295 290 289 290 291 290 290 289 288 288 288 288 288 288 288 288 288 287 288 288 289 289 290 291 290 291 290 290 291 291
310 309 308 304 303 303 308 307 303 303 302 301 300 295 291 290 289 290 290 290 289 288 287 287 287 287 287 287 287 287 287 287 287 286 286 286 287 287 288 289 289 290 290 290
310 310 310 301 302 306 304 302 301 300 298 295 292 291 289 288 289 290 290 289 288 287 286 285 285 285 285 286 286 287 286 287 286 286 285 285 285 285 285 285 286 286 287 287
306 305 300 299 302 301 301 300 299 296 295 293 291 289 288 288 288 289 289 288 287 286 285 284 284 284 284 284 285 285 285 285 286 285 285 285 284 284 284 284 284 284 284 284
304 300 299 298 299 298 298 297 296 296 294 292 290 289 289 289 289 288 287 286 285 284 283 282 282 282 282 283 283 284 284 284 284 284 284 284 284 283 283 282 282 282 281 281
302 299 298 297 297 296 296 295 295 295 294 292 291 291 291 289 288 287 286 285 284 283 282 281 281 281 281 281 281 282 283 282 283 283 283 283 283 283 282 281 281 281 280 280
307 300 300 297 295 295 294 293 293 292 292 292 291 290 289 287 286 285 284 284 283 282 281 280 280 280 280 280 280 280 281 281 281 282 282 281 281 282 281 281 280 280 280 279
301 299 297 294 294 294 293 292 292 291 290 290 289 289 287 285 284 283 283 282 282 281 280 279 279 279 279 279 279 279 279 280 280 280 281 280 280 280 280 280 280 280 280 279
298 295 294 294 293 293 292 291 290 289 289 288 287 286 285 284 283 283 282 281 281 280 279 279 279 279 279 278 278 278 279 279 279 279 279 279 279 279 279 279 279 279 279 279
297 298 296 295 293 292 291 290 289 288 287 286 285 285 284 283 282 282 281 281 281 280 279 279 279 279 278 278 278 278 278 278 278 278 278 279 278 278 278 278 278 278 278 278
298 296 296 294 292 291 290 290 288 287 286 285 285 284 283 282 282 281 280 280 280 279 279 279 279 278 277 277 277 277 277 278 277 277 278 278 277 277 277 277 277 277 277 277
296 295 294 293 292 291 291 290 288 287 285 285 284 283 282 282 281 280 280 280 279 279 279 279 278 277 277 277 276 276 277 277 277 276 277 277 276 276 275 276 276 276 276 276
297 296 295 293 292 291 290 289 287 286 285 285 284 283 282 281 281 280 279 279 279 280 280 279 278 277 276 276 275 275 276 276 276 276 276 275 275 275 275 275 274 275 274 274
296 295 294 293 292 290 288 287 286 285 285 284 283 282 280 279 279 279 278 278 280 281 280 278 277 276 276 276 275 275 275 275 275 275 275 274 274 274 274 273 274 273 273 273
295 294 293 292 290 289 287 286 286 285 284 283 281 280 280 279 279 278 278 280 280 279 278 277 276 276 276 276 276 275 274 275 275 274 274 274 274 274 273 273 273 273 272 272
294 293 292 291 289 288 287 285 284 283 282 281 280 279 279 279 279 279 279 280 279 278 277 276 276 277 276 277 276 275 274 274 274 274 274 274 273 273 273 273 273 272 272 272
292 291 290 289 288 286 285 284 283 282 281 280 280 279 279 281 280 280 280 279 278 277 276 275 276 276 276 275 274 273 273 274 274 274 274 274 273 273 273 273 273 272 272 271
290 290 289 287 286 284 283 282 282 281 280 280 279 279 279 279 279 280 279 279 277 277 276 275 275 274 274 273 273 273 273 273 273 273 273 272 272 272 272 272 272 272 273 272
288 287 286 284 284 283 282 281 280 280 280 280 279 279 278 279 279 279 279 277 276 275 274 274 273 273 272 272 271 271 272 272 271 271 271 271 271 271 271 271 270 270 270 271
286 286 284 284 283 282 281 280 280 280 280 281 281 280 279 278 277 277 276 275 274 274 273 272 272 271 271 270 269 269 268 268 268 268 268 268 268 268 268 268 268 269 269 269
285 284 284 283 283 283 283 282 283 283 282 282 281 280 279 278 276 275 274 274 273 272 271 270 270 269 269 268 268 267 266 266 266 266 266 266 265 265 265 266 266 267 267 268
284 284 283 284 285 284 284 283 284 283 282 281 280 279 278 276 275 274 273 272 271 270 270 269 268 267 267 267 265 265 264 264 264 263 263 263 263 263 263 263 263 263 264 265

GFSNGP_850_thetae_129.txt.gz
Theta_e
311 311 310 312 312 310 310 308 310 308 304 301 299 297 295 295 293 292 291 290 289 289 289 290 290 290 290 292 292 292 294 294 293 293 295 300 305 303 302 302 304 302 308 311
307 308 309 310 308 306 309 307 306 306 302 300 298 296 295 294 293 292 291 290 289 289 289 289 289 289 289 290 290 292 293 293 294 296 297 298 300 303 302 300 301 302 302 304
310 311 313 312 308 306 309 308 308 307 304 299 298 295 293 293 292 291 291 290 289 289 289 289 288 288 288 288 289 290 290 291 292 293 294 295 298 300 298 297 296 295 297 299
310 308 311 308 308 308 309 307 303 301 299 299 296 293 292 292 291 291 291 290 289 288 288 288 288 288 288 288 287 288 288 289 290 290 292 293 294 295 295 295 295 295 296 297
308 309 309 308 307 308 309 307 303 301 298 295 294 292 291 290 291 291 290 290 289 288 288 288 287 288 287 287 287 287 287 286 287 288 289 290 291 291 291 292 292 292 292 293
307 310 308 307 304 304 306 307 304 301 298 296 294 298 293 290 290 290 290 289 288 288 287 287 286 287 287 287 286 287 286 286 285 286 286 287 287 287 287 289 290 290 290 290
307 308 306 303 302 304 307 303 303 302 300 298 296 294 291 290 290 290 289 289 288 287 285 285 286 286 286 286 285 286 286 285 285 285 285 284 285 285 286 286 286 286 286 287
307 308 307 301 302 305 302 300 299 298 298 296 292 291 290 290 290 289 289 287 286 285 284 284 284 284 285 285 284 285 285 285 284 284 284 284 284 283 283 284 284 284 284 285
304 303 299 300 301 301 300 297 296 296 294 293 291 290 289 289 289 288 287 286 284 283 283 282 282 282 282 283 284 283 283 283 283 283 283 282 283 282 282 282 282 282 282 282
300 300 299 299 299 299 299 297 295 294 293 292 290 289 289 289 288 287 286 285 284 283 283 281 280 280 280 281 281 282 282 282 282 282 282 282 282 281 281 281 280 280 280 280
300 299 298 298 298 297 296 295 295 293 292 291 291 290 290 288 287 285 284 284 283 282 281 280 280 280 280 280 280 281 281 280 281 281 281 280 280 280 280 280 280 279 279 279
299 298 297 297 296 295 295 294 294 293 292 292 291 289 288 287 286 285 284 283 282 281 280 280 280 280 280 279 279 280 281 280 279 280 280 279 280 280 279 280 279 279 279 279
300 298 299 296 294 294 294 293 293 292 291 290 290 289 287 285 284 284 283 282 281 280 280 280 280 279 279 279 279 279 280 279 278 278 279 279 279 278 278 279 279 279 278 278
299 298 294 294 293 293 293 292 291 290 290 289 288 288 287 285 284 283 282 281 281 280 279 279 279 279 279 279 278 278 278 278 278 278 278 278 278 277 277 277 277 277 277 277
298 298 295 294 293 293 291 290 289 289 288 288 287 286 285 284 283 282 281 281 281 280 279 279 279 278 278 278 277 277 278 277 277 277 277 277 277 276 276 276 276 276 276 276
297 296 294 293 293 291 290 289 288 287 287 286 285 285 284 283 282 281 280 280 280 279 279 279 278 278 277 277 277 277 277 276 276 276 276 276 276 275 275 275 275 274 275 274
296 295 294 293 291 290 290 289 288 287 286 285 285 284 283 282 281 280 280 279 279 279 280 279 278 277 277 277 277 276 276 276 275 275 275 275 274 274 274 274 274 274 274 273
297 295 293 292 291 291 290 289 288 287 286 285 284 283 282 281 280 280 279 278 280 281 280 278 277 277 277 277 277 276 276 275 275 275 274 274 274 274 274 273 273 273 273 272
296 295 293 292 291 291 290 289 288 287 286 285 283 282 281 280 280 279 278 279 280 280 279 277 276 277 277 277 276 276 276 275 274 274 274 274 274 274 273 273 273 273 272 272
296 295 294 292 291 291 290 289 288 286 285 284 282 281 280 280 279 279 279 280 280 278 278 277 276 276 276 276 276 276 275 275 274 274 274 274 274 274 273 273 273 273 273 273
295 294 294 293 291 290 289 287 286 285 283 282 281 280 280 279 280 280 279 279 278 278 277 277 276 276 276 276 275 274 273 273 273 273 274 274 273 273 273 273 273 272 272 272
294 294 293 292 291 289 287 286 284 283 283 282 280 280 279 281 280 280 280 279 278 278 277 277 275 275 275 274 273 273 272 272 273 273 272 272 272 272 271 271 271 271 270 270
293 292 291 290 289 288 285 284 283 282 282 280 280 279 279 279 279 279 279 278 277 277 277 275 274 274 273 272 272 271 271 271 271 270 270 270 269 269 269 269 269 269 269 269
292 290 289 288 287 285 284 283 282 281 280 280 279 279 279 279 279 279 278 278 277 276 275 274 273 272 272 271 270 270 269 269 268 268 268 268 267 267 267 267 267 267 267 268
289 288 287 286 284 284 283 282 281 280 280 280 280 280 279 279 278 277 276 276 275 275 273 273 272 271 270 270 269 269 268 267 267 266 266 266 265 265 264 264 264 264 264 265
287 286 285 284 284 283 282 281 281 282 282 281 281 280 279 279 278 277 276 275 274 273 272 271 270 270 270 269 268 268 267 266 266 265 264 264 263 263 263 263 263 262 262 262
285 284 283 283 284 284 284 283 282 282 282 282 281 280 279 278 277 276 275 274 273 272 271 270 270 269 269 268 267 267 265 265 265 264 263 263 262 262 261 261 261 261 261 261

GFSNGP_850_thetae_132.txt.gz
Theta_e
309 310 310 310 310 311 311 309 308 301 305 301 299 297 296 294 292 291 290 289 289 289 289 289 288 289 288 288 289 289 291 291 290 291 290 289 291 297 299 305 305 306 308 308
306 308 309 308 307 308 310 308 305 306 305 299 297 296 294 293 292 291 290 289 289 288 288 288 288 288 288 287 287 287 287 289 290 289 289 290 291 293 295 298 302 305 303 303
306 307 309 309 307 308 307 307 306 306 303 298 297 296 294 292 291 290 290 289 288 288 288 288 287 287 287 287 286 286 286 286 288 290 291 291 291 292 293 294 299 302 303 302
307 308 306 304 308 308 308 308 303 301 299 298 297 294 292 292 291 290 290 288 288 288 287 287 287 287 287 287 286 286 285 286 286 286 287 288 288 289 289 290 290 293 293 293
308 308 305 307 306 307 308 307 302 300 297 294 293 292 291 291 291 290 289 289 288 287 287 287 287 287 286 286 286 285 285 284 284 284 284 284 284 284 286 287 290 289 288 290
307 308 307 305 304 303 306 306 301 298 295 293 293 297 293 291 290 290 289 288 288 287 286 286 286 286 286 285 285 285 284 284 283 283 283 282 282 283 284 284 285 286 287 287
306 307 306 303 302 303 308 304 301 298 296 294 294 295 294 290 290 289 289 288 287 286 285 284 285 285 285 284 284 284 284 284 283 283 283 282 282 282 283 283 284 284 284 284
305 307 306 301 301 304 300 297 298 298 297 295 294 293 290 290 289 288 288 287 286 284 283 282 282 283 284 284 283 283 283 283 282 282 282 282 282 282 283 283 283 283 283 282
305 303 299 300 301 302 300 298 296 296 295 295 293 291 290 289 288 287 286 285 285 283 282 281 281 281 282 282 282 282 282 282 281 281 281 281 281 281 282 282 282 282 281 281
300 299 299 300 299 299 299 299 297 296 294 293 292 290 288 287 286 285 285 284 284 282 281 281 280 280 280 281 281 281 280 281 281 281 281 281 281 281 281 280 280 279 279 279
300 299 298 298 298 298 297 296 295 293 293 292 290 289 289 286 286 285 285 284 283 281 280 280 279 279 280 280 280 280 279 280 280 280 280 280 280 279 279 279 278 278 278 277
299 298 297 298 297 297 296 294 293 292 291 290 289 289 286 286 286 285 284 283 282 280 280 279 279 279 279 279 279 279 278 279 279 279 279 278 278 278 278 278 278 278 277 277
301 298 298 297 296 295 294 294 293 292 292 290 288 287 287 286 285 284 283 282 280 280 279 279 279 278 278 278 278 278 278 277 278 278 277 277 277 277 277 276 277 277 276 276
300 298 295 295 294 294 294 293 292 291 291 290 290 289 287 286 284 284 282 281 280 279 279 279 278 278 277 277 277 278 277 277 276 276 276 276 276 275 275 276 276 275 275 275
298 297 297 295 294 293 293 292 290 290 289 289 287 287 286 285 284 282 282 281 281 279 279 279 278 277 277 277 277 277 277 276 275 276 276 275 275 274 274 274 274 274 274 274
297 296 295 294 293 293 292 290 289 289 288 288 287 286 285 284 282 281 281 281 280 279 280 278 277 277 276 276 276 275 275 275 275 275 275 274 274 274 274 273 273 273 273 273
296 294 293 292 293 291 290 290 290 288 287 287 286 285 284 282 281 280 279 279 279 280 279 278 277 277 276 276 276 276 276 276 275 274 274 274 274 274 273 273 273 273 273 272
297 296 294 294 292 291 290 289 288 288 287 286 285 284 282 281 280 280 279 279 280 280 279 277 277 277 276 276 276 276 275 275 275 274 274 274 274 274 273 273 273 273 273 273
297 295 294 293 291 290 290 289 288 287 287 286 284 283 282 281 280 279 279 279 280 279 278 277 276 276 276 276 276 276 275 275 274 274 274 274 274 273 273 273 273 273 273 273
296 294 293 292 291 291 290 289 288 287 286 285 283 282 281 280 279 279 279 280 279 279 278 277 277 276 275 275 275 275 274 274 273 273 273 273 273 273 273 272 272 272 272 272
295 294 293 292 291 291 290 289 288 287 286 284 282 281 280 279 279 279 279 279 279 278 278 277 277 276 275 275 274 273 273 272 272 272 272 272 271 271 271 270 270 270 270 270
295 294 293 292 292 291 289 288 287 285 284 282 280 279 280 280 280 280 279 279 278 278 277 277 276 275 274 273 273 272 271 271 270 270 270 269 269 268 268 268 267 267 267 268
294 294 293 292 292 290 288 286 285 284 282 281 280 279 280 280 279 279 279 278 278 277 277 276 275 274 273 272 272 271 270 270 269 269 268 267 267 266 266 266 265 265 265 265
294 293 292 290 289 288 287 285 283 282 280 279 279 279 279 279 279 279 278 278 277 276 275 274 273 273 272 271 270 270 270 269 268 268 267 266 266 265 265 264 264 264 264 263
292 291 290 289 288 287 284 283 282 281 279 279 279 279 280 279 279 279 278 276 275 275 274 273 272 271 271 270 270 269 269 268 267 267 266 266 265 264 264 263 263 263 262 262
290 290 289 288 286 284 283 282 282 280 280 280 280 280 280 279 279 278 277 276 274 274 273 272 271 270 270 269 269 268 268 267 267 266 265 265 264 263 263 262 262 262 262 261
288 287 285 284 283 283 282 281 280 282 282 281 281 280 279 278 278 277 276 274 273 272 271 270 270 269 269 268 268 268 267 267 266 265 265 264 263 262 262 262 261 261 261 261

GFSNGP_850_thetae_135.txt.gz
Theta_e
307 308 308 308 308 308 309 309 308 305 307 303 300 296 295 293 292 291 290 290 289 288 288 287 287 287 286 286 286 286 288 290 292 293 292 293 293 292 288 287 292 294 299 303
301 305 305 305 305 306 306 307 309 308 307 300 298 296 294 293 292 291 290 289 289 288 287 287 287 287 286 285 285 285 284 284 286 287 289 291 290 290 293 294 294 291 295 298
305 305 305 306 305 305 307 307 308 308 306 297 296 295 294 292 292 290 290 288 288 288 287 287 287 286 286 285 285 284 284 283 283 284 285 285 286 288 289 291 292 295 296 296
306 306 307 303 306 306 307 308 305 302 298 297 296 295 294 292 291 290 290 288 288 287 287 287 286 286 286 285 284 284 283 283 282 283 283 283 284 284 284 285 288 289 289 290
307 306 304 305 306 307 307 308 303 300 297 294 293 293 291 291 290 290 289 288 288 287 287 286 286 285 285 285 284 284 283 283 282 282 283 283 284 283 283 283 283 283 283 284
307 309 309 303 304 303 305 307 301 298 294 293 292 295 291 291 290 289 288 288 287 286 285 285 285 285 284 284 283 283 283 282 282 282 282 282 282 282 282 281 280 280 280 281
307 307 306 304 303 303 307 304 300 298 295 293 294 295 295 291 290 289 288 287 286 284 284 283 284 284 283 283 283 282 282 282 282 282 282 281 281 281 281 281 281 280 280 280
305 307 305 302 301 304 300 297 298 298 295 293 295 295 291 290 289 289 287 286 285 283 282 281 282 282 282 282 282 282 281 281 281 281 281 281 282 281 280 280 280 279 279 279
305 304 300 300 301 301 299 299 297 297 295 295 293 291 290 289 288 288 286 285 284 282 281 281 281 281 281 281 281 281 281 281 280 280 280 280 280 280 280 279 279 278 278 278
304 300 299 300 299 299 298 299 298 298 296 295 293 290 289 288 288 286 286 285 284 281 281 281 281 280 281 281 281 281 280 280 280 279 279 279 279 279 279 279 278 278 278 277
301 298 298 299 299 297 297 296 296 295 296 294 292 288 287 287 287 287 285 284 283 281 281 281 280 280 280 280 280 280 279 279 279 279 279 278 278 278 278 278 278 277 277 277
301 299 298 298 298 297 297 296 295 295 292 291 290 287 287 288 287 285 284 283 281 280 280 280 280 280 279 279 279 279 279 278 278 278 278 277 277 277 276 276 277 277 276 276
301 299 298 298 297 296 296 294 293 292 291 289 289 289 288 288 286 284 283 282 280 280 280 280 279 279 279 279 278 278 278 277 277 277 276 276 276 276 276 276 275 275 275 274
301 299 296 296 295 295 295 293 291 291 290 290 289 289 288 287 283 284 282 281 280 280 279 279 279 278 278 277 277 277 276 276 275 275 275 275 274 274 274 274 274 274 274 274
298 298 298 296 295 294 294 292 292 291 290 290 289 289 288 284 284 283 281 281 280 279 279 279 278 278 277 277 276 276 275 275 275 275 274 274 274 274 273 273 273 273 273 273
297 297 296 295 294 293 293 292 291 290 290 290 289 286 284 284 284 282 281 281 280 279 280 278 278 278 277 277 276 276 276 275 275 275 274 274 274 274 273 273 273 273 273 273
296 294 294 294 294 292 292 292 291 291 290 288 286 285 285 284 282 281 281 280 279 280 279 278 277 277 277 277 276 276 276 275 275 274 274 274 274 274 274 273 273 273 273 273
298 297 294 293 292 292 292 291 290 290 288 287 286 285 284 283 282 280 279 279 280 280 278 277 277 276 276 276 276 276 275 275 274 274 273 273 273 273 273 273 273 272 272 272
297 296 294 293 293 292 291 290 289 288 287 287 285 284 283 281 280 279 279 279 280 279 278 277 277 277 276 275 275 275 274 274 273 273 273 273 273 273 272 272 272 271 271 271
296 295 295 294 292 292 291 290 289 288 287 286 284 283 281 281 279 279 279 280 279 279 278 278 277 277 276 275 274 274 273 272 272 272 272 272 271 271 271 270 270 270 269 269
296 294 293 292 291 291 290 290 289 288 286 285 285 283 281 279 279 279 279 279 279 279 278 277 277 276 275 274 274 273 272 272 271 271 270 270 270 269 269 268 268 268 267 267
295 294 293 292 292 291 290 290 288 287 286 285 282 281 279 279 279 279 279 279 278 278 277 277 276 275 274 273 272 272 271 271 270 270 269 269 268 268 268 267 267 266 266 265
294 294 293 293 292 291 290 289 288 287 286 283 281 280 279 280 280 280 279 279 278 277 277 276 275 274 273 272 271 271 270 270 269 269 268 268 267 267 266 266 265 265 264 264
294 293 293 292 291 290 289 287 285 284 282 281 280 279 280 280 279 279 279 278 277 276 275 275 274 273 272 271 270 270 269 269 268 268 268 267 266 266 265 265 265 264 263 263
293 293 292 291 290 289 287 286 284 282 280 279 279 279 279 279 279 278 278 277 276 275 274 274 273 271 271 270 270 269 269 269 268 267 267 266 266 266 265 264 264 263 263 262
293 292 290 289 289 288 286 284 283 281 280 279 279 279 279 279 279 278 278 277 276 274 273 272 271 270 270 270 269 269 268 268 267 267 266 266 265 265 264 264 263 263 262 262
291 289 288 287 286 285 284 283 282 281 279 279 279 279 280 279 278 278 277 276 275 273 272 270 270 269 269 269 268 268 268 267 267 267 266 265 265 265 264 264 263 262 262 262